Observation data for Goodnight on 04/09/2020      Previous  Date  Next       Current Mesonet Observations  Soil Data  Daily Summary Page  Observations in Plain Language
KGO1 090500Z 05008KT 17/02 A3002 RMK A01 T01690017  RH  036%=      5-min Rain = 0
KGO1 090501Z 05007KT 17/02 A3002 RMK A01 T01690016  RH  036%=      5-min Rain = 0
KGO1 090502Z 05007KT 17/02 A3002 RMK A01 T01680018  RH  036%=      5-min Rain = 0
KGO1 090503Z 05007KT 17/02 A3002 RMK A01 T01670018  RH  037%=      5-min Rain = 0
KGO1 090504Z 05007KT 17/02 A3002 RMK A01 T01670017  RH  037%=      5-min Rain = 0
KGO1 090505Z 05007KT 17/02 A3002 RMK A01 T01650018  RH  037%=      5-min Rain = 0
KGO1 090506Z 05007KT 16/02 A3002 RMK A01 T01640018  RH  037%=      5-min Rain = 0
KGO1 090507Z 05008KT 16/02 A3002 RMK A01 T01640016  RH  037%=      5-min Rain = 0
KGO1 090508Z 05008KT 17/02 A3002 RMK A01 T01650015  RH  036%=      5-min Rain = 0
KGO1 090509Z 06007KT 17/02 A3002 RMK A01 T01660015  RH  036%=      5-min Rain = 0
KGO1 090510Z 06008KT 17/01 A3002 RMK A01 T01670014  RH  036%=      5-min Rain = 0
KGO1 090511Z 06008KT 17/02 A3002 RMK A01 T01680015  RH  035%=      5-min Rain = 0
KGO1 090512Z 06008KT 17/01 A3002 RMK A01 T01690014  RH  035%=      5-min Rain = 0
KGO1 090513Z 06009KT 17/01 A3002 RMK A01 T01690014  RH  035%=      5-min Rain = 0
KGO1 090514Z 06010KT 17/01 A3002 RMK A01 T01700013  RH  035%=      5-min Rain = 0
KGO1 090515Z 07011KT 17/01 A3002 RMK A01 T01720011  RH  034%=      5-min Rain = 0
KGO1 090516Z 07010KT 17/01 A3002 RMK A01 T01740012  RH  034%=      5-min Rain = 0
KGO1 090517Z 06010KT 17/01 A3002 RMK A01 T01740010  RH  033%=      5-min Rain = 0
KGO1 090518Z 07011KT 18/01 A3002 RMK A01 T01750010  RH  033%=      5-min Rain = 0
KGO1 090519Z 07010KT 18/01 A3002 RMK A01 T01760011  RH  033%=      5-min Rain = 0
KGO1 090520Z 07009KT 18/01 A3002 RMK A01 T01760011  RH  033%=      5-min Rain = 0
KGO1 090521Z 07008KT 18/01 A3002 RMK A01 T01760012  RH  033%=      5-min Rain = 0
KGO1 090522Z 07009KT 18/01 A3002 RMK A01 T01770011  RH  033%=      5-min Rain = 0
KGO1 090523Z 07010KT 18/01 A3002 RMK A01 T01770011  RH  033%=      5-min Rain = 0
KGO1 090524Z 07010KT 18/01 A3002 RMK A01 T01760010  RH  033%=      5-min Rain = 0
KGO1 090525Z 06011KT 18/01 A3002 RMK A01 T01770012  RH  033%=      5-min Rain = 0
KGO1 090526Z 07011KT 18/01 A3002 RMK A01 T01760011  RH  033%=      5-min Rain = 0
KGO1 090527Z 07009KT 18/01 A3002 RMK A01 T01760011  RH  033%=      5-min Rain = 0
KGO1 090528Z 07010KT 18/01 A3002 RMK A01 T01760012  RH  033%=      5-min Rain = 0
KGO1 090529Z 07009KT 18/01 A3002 RMK A01 T01750012  RH  033%=      5-min Rain = 0
KGO1 090530Z 06010KT 18/01 A3002 RMK A01 T01750011  RH  033%=      5-min Rain = 0
KGO1 090531Z 07009KT 18/01 A3002 RMK A01 T01750012  RH  033%=      5-min Rain = 0
KGO1 090532Z 07009KT 18/01 A3002 RMK A01 T01750012  RH  033%=      5-min Rain = 0
KGO1 090533Z 07009KT 17/01 A3002 RMK A01 T01740012  RH  033%=      5-min Rain = 0
KGO1 090534Z 07008KT 17/01 A3002 RMK A01 T01740012  RH  034%=      5-min Rain = 0
KGO1 090535Z 07010KT 17/01 A3002 RMK A01 T01730013  RH  034%=      5-min Rain = 0
KGO1 090536Z 07010KT 17/01 A3002 RMK A01 T01710012  RH  034%=      5-min Rain = 0
KGO1 090537Z 07010KT 17/01 A3002 RMK A01 T01710012  RH  034%=      5-min Rain = 0
KGO1 090538Z 07010KT 17/01 A3002 RMK A01 T01720012  RH  034%=      5-min Rain = 0
KGO1 090539Z 07010KT 17/01 A3002 RMK A01 T01720013  RH  034%=      5-min Rain = 0
KGO1 090540Z 07010KT 17/01 A3002 RMK A01 T01710012  RH  034%=      5-min Rain = 0
KGO1 090541Z 07009KT 17/01 A3002 RMK A01 T01710013  RH  034%=      5-min Rain = 0
KGO1 090542Z 07008KT 17/01 A3002 RMK A01 T01700013  RH  035%=      5-min Rain = 0
KGO1 090543Z 07009KT 17/01 A3002 RMK A01 T01690013  RH  035%=      5-min Rain = 0
KGO1 090544Z 07009KT 17/01 A3002 RMK A01 T01690013  RH  035%=      5-min Rain = 0
KGO1 090545Z 07009KT 17/01 A3002 RMK A01 T01700012  RH  035%=      5-min Rain = 0
KGO1 090546Z 06007KT 17/01 A3002 RMK A01 T01700012  RH  035%=      5-min Rain = 0
KGO1 090547Z 07007KT 17/01 A3002 RMK A01 T01700012  RH  035%=      5-min Rain = 0
KGO1 090548Z 07009KT 17/01 A3002 RMK A01 T01700013  RH  035%=      5-min Rain = 0
KGO1 090549Z 07008KT 17/01 A3002 RMK A01 T01690013  RH  035%=      5-min Rain = 0
KGO1 090550Z 07008KT 17/01 A3002 RMK A01 T01690014  RH  035%=      5-min Rain = 0
KGO1 090551Z 07008KT 17/01 A3002 RMK A01 T01670014  RH  035%=      5-min Rain = 0
KGO1 090552Z 07009KT 17/01 A3002 RMK A01 T01670013  RH  035%=      5-min Rain = 0
KGO1 090553Z 07008KT 17/01 A3002 RMK A01 T01670014  RH  035%=      5-min Rain = 0
KGO1 090554Z 07009KT 17/01 A3002 RMK A01 T01670014  RH  036%=      5-min Rain = 0
KGO1 090555Z 08010KT 17/01 A3002 RMK A01 T01660013  RH  035%=      5-min Rain = 0
KGO1 090556Z 07009KT 17/01 A3002 RMK A01 T01680012  RH  035%=      5-min Rain = 0
KGO1 090557Z 07008KT 17/01 A3002 RMK A01 T01700012  RH  034%=      5-min Rain = 0
KGO1 090558Z 07008KT 17/01 A3002 RMK A01 T01710012  RH  034%=      5-min Rain = 0
KGO1 090559Z 08007KT 17/01 A3002 RMK A01 T01700012  RH  034%=      5-min Rain = 0
KGO1 090600Z 08007KT 17/01 A3002 RMK A01 T01700013  RH  034%=      5-min Rain = 0
KGO1 090601Z 08006KT 17/01 A3002 RMK A01 T01700014  RH  035%=      5-min Rain = 0
KGO1 090602Z 08007KT 17/01 A3002 RMK A01 T01670014  RH  035%=      5-min Rain = 0
KGO1 090603Z 08008KT 17/01 A3002 RMK A01 T01660014  RH  036%=      5-min Rain = 0
KGO1 090604Z 08006KT 16/01 A3002 RMK A01 T01640014  RH  036%=      5-min Rain = 0
KGO1 090605Z 08007KT 16/01 A3002 RMK A01 T01640014  RH  036%=      5-min Rain = 0
KGO1 090606Z 08008KT 16/01 A3002 RMK A01 T01640014  RH  036%=      5-min Rain = 0
KGO1 090607Z 09008KT 16/02 A3002 RMK A01 T01640015  RH  036%=      5-min Rain = 0
KGO1 090608Z 08007KT 16/02 A3002 RMK A01 T01640015  RH  037%=      5-min Rain = 0
KGO1 090609Z 08006KT 16/01 A3002 RMK A01 T01630014  RH  037%=      5-min Rain = 0
KGO1 090610Z 09006KT 16/01 A3002 RMK A01 T01630014  RH  036%=      5-min Rain = 0
KGO1 090611Z 09006KT 16/01 A3002 RMK A01 T01630014  RH  037%=      5-min Rain = 0
KGO1 090612Z 09007KT 16/02 A3002 RMK A01 T01620015  RH  037%=      5-min Rain = 0
KGO1 090613Z 09006KT 16/01 A3002 RMK A01 T01620014  RH  037%=      5-min Rain = 0
KGO1 090614Z 09005KT 16/01 A3002 RMK A01 T01620014  RH  037%=      5-min Rain = 0
KGO1 090615Z 09006KT 16/02 A3002 RMK A01 T01620015  RH  037%=      5-min Rain = 0
KGO1 090616Z 09006KT 16/02 A3002 RMK A01 T01610015  RH  037%=      5-min Rain = 0
KGO1 090617Z 09007KT 16/01 A3002 RMK A01 T01610014  RH  037%=      5-min Rain = 0
KGO1 090618Z 09006KT 16/01 A3002 RMK A01 T01610014  RH  037%=      5-min Rain = 0
KGO1 090619Z 08005KT 16/01 A3002 RMK A01 T01600014  RH  037%=      5-min Rain = 0
KGO1 090620Z 08005KT 16/01 A3002 RMK A01 T01610014  RH  037%=      5-min Rain = 0
KGO1 090621Z 08005KT 16/01 A3002 RMK A01 T01600014  RH  037%=      5-min Rain = 0
KGO1 090622Z 09005KT 16/01 A3002 RMK A01 T01600014  RH  037%=      5-min Rain = 0
KGO1 090623Z 08005KT 16/01 A3002 RMK A01 T01590014  RH  037%=      5-min Rain = 0
KGO1 090624Z 09005KT 16/01 A3002 RMK A01 T01590014  RH  038%=      5-min Rain = 0
KGO1 090625Z 09005KT 16/01 A3002 RMK A01 T01590014  RH  037%=      5-min Rain = 0
KGO1 090626Z 09005KT 16/02 A3002 RMK A01 T01580015  RH  038%=      5-min Rain = 0
KGO1 090627Z 09005KT 16/02 A3002 RMK A01 T01570017  RH  039%=      5-min Rain = 0
KGO1 090628Z 08005KT 16/02 A3002 RMK A01 T01550016  RH  039%=      5-min Rain = 0
KGO1 090629Z 08005KT 16/02 A3002 RMK A01 T01550016  RH  039%=      5-min Rain = 0
KGO1 090630Z 09007KT 16/02 A3002 RMK A01 T01560016  RH  039%=      5-min Rain = 0
KGO1 090631Z 09006KT 16/02 A3002 RMK A01 T01560016  RH  039%=      5-min Rain = 0
KGO1 090632Z 09006KT 16/02 A3001 RMK A01 T01560016  RH  039%=      5-min Rain = 0
KGO1 090633Z 09006KT 16/02 A3001 RMK A01 T01570016  RH  039%=      5-min Rain = 0
KGO1 090634Z 10006KT 16/02 A3002 RMK A01 T01560017  RH  039%=      5-min Rain = 0
KGO1 090635Z 10005KT 16/02 A3002 RMK A01 T01550017  RH  039%=      5-min Rain = 0
KGO1 090636Z 10004KT 16/02 A3002 RMK A01 T01550017  RH  039%=      5-min Rain = 0
KGO1 090637Z 11004KT 15/02 A3002 RMK A01 T01530017  RH  040%=      5-min Rain = 0
KGO1 090638Z 12004KT 15/02 A3002 RMK A01 T01520017  RH  040%=      5-min Rain = 0
KGO1 090639Z 13004KT 15/02 A3002 RMK A01 T01510017  RH  040%=      5-min Rain = 0
KGO1 090640Z 14004KT 15/02 A3002 RMK A01 T01500018  RH  041%=      5-min Rain = 0
KGO1 090641Z 14005KT 15/02 A3002 RMK A01 T01490018  RH  041%=      5-min Rain = 0
KGO1 090642Z 15004KT 15/02 A3002 RMK A01 T01490019  RH  041%=      5-min Rain = 0
KGO1 090643Z 16004KT 15/02 A3002 RMK A01 T01480019  RH  042%=      5-min Rain = 0
KGO1 090644Z 15004KT 15/02 A3002 RMK A01 T01470019  RH  042%=      5-min Rain = 0
KGO1 090645Z 14004KT 15/02 A3002 RMK A01 T01470020  RH  042%=      5-min Rain = 0
KGO1 090646Z 12003KT 15/02 A3002 RMK A01 T01460020  RH  042%=      5-min Rain = 0
KGO1 090647Z 11003KT 15/02 A3002 RMK A01 T01460019  RH  042%=      5-min Rain = 0
KGO1 090648Z 11004KT 15/02 A3002 RMK A01 T01460018  RH  042%=      5-min Rain = 0
KGO1 090649Z 10004KT 15/02 A3002 RMK A01 T01460018  RH  042%=      5-min Rain = 0
KGO1 090650Z 10004KT 15/02 A3001 RMK A01 T01470019  RH  042%=      5-min Rain = 0
KGO1 090651Z 10004KT 15/02 A3001 RMK A01 T01470019  RH  042%=      5-min Rain = 0
KGO1 090652Z 10005KT 15/02 A3001 RMK A01 T01470019  RH  042%=      5-min Rain = 0
KGO1 090653Z 10004KT 15/02 A3001 RMK A01 T01470018  RH  042%=      5-min Rain = 0
KGO1 090654Z 10004KT 15/02 A3001 RMK A01 T01480019  RH  042%=      5-min Rain = 0
KGO1 090655Z 10004KT 15/02 A3001 RMK A01 T01470019  RH  042%=      5-min Rain = 0
KGO1 090656Z 10005KT 15/02 A3001 RMK A01 T01470019  RH  042%=      5-min Rain = 0
KGO1 090657Z 10005KT 15/02 A3001 RMK A01 T01470019  RH  042%=      5-min Rain = 0
KGO1 090658Z 10005KT 15/02 A3001 RMK A01 T01460020  RH  042%=      5-min Rain = 0
KGO1 090659Z 09004KT 15/02 A3001 RMK A01 T01450020  RH  043%=      5-min Rain = 0
KGO1 090700Z 09004KT 15/02 A3001 RMK A01 T01450020  RH  043%=      5-min Rain = 0
KGO1 090701Z 09005KT 15/02 A3001 RMK A01 T01450019  RH  042%=      5-min Rain = 0
KGO1 090702Z 09005KT 15/02 A3001 RMK A01 T01460019  RH  042%=      5-min Rain = 0
KGO1 090703Z 09005KT 15/02 A3001 RMK A01 T01460019  RH  042%=      5-min Rain = 0
KGO1 090704Z 09006KT 15/02 A3001 RMK A01 T01460019  RH  042%=      5-min Rain = 0
KGO1 090705Z 09006KT 15/02 A3001 RMK A01 T01470020  RH  042%=      5-min Rain = 0
KGO1 090706Z 10005KT 15/02 A3001 RMK A01 T01470021  RH  042%=      5-min Rain = 0
KGO1 090707Z 09007KT 15/02 A3001 RMK A01 T01470021  RH  043%=      5-min Rain = 0
KGO1 090708Z 10005KT 15/02 A3001 RMK A01 T01460021  RH  043%=      5-min Rain = 0
KGO1 090709Z 11005KT 15/02 A3002 RMK A01 T01460020  RH  043%=      5-min Rain = 0
KGO1 090710Z 11006KT 15/02 A3002 RMK A01 T01460021  RH  043%=      5-min Rain = 0
KGO1 090711Z 12006KT 15/02 A3002 RMK A01 T01450021  RH  043%=      5-min Rain = 0
KGO1 090712Z 12006KT 15/02 A3002 RMK A01 T01460021  RH  043%=      5-min Rain = 0
KGO1 090713Z 13006KT 15/02 A3002 RMK A01 T01470021  RH  043%=      5-min Rain = 0
KGO1 090714Z 14005KT 15/02 A3002 RMK A01 T01480021  RH  042%=      5-min Rain = 0
KGO1 090715Z 16005KT 15/02 A3002 RMK A01 T01480022  RH  042%=      5-min Rain = 0
KGO1 090716Z 16005KT 15/02 A3002 RMK A01 T01480023  RH  043%=      5-min Rain = 0
KGO1 090717Z 16005KT 15/02 A3002 RMK A01 T01450022  RH  043%=      5-min Rain = 0
KGO1 090718Z 15006KT 15/02 A3001 RMK A01 T01450022  RH  044%=      5-min Rain = 0
KGO1 090719Z 14007KT 14/02 A3001 RMK A01 T01440023  RH  044%=      5-min Rain = 0
KGO1 090720Z 14006KT 14/02 A3001 RMK A01 T01430022  RH  044%=      5-min Rain = 0
KGO1 090721Z 13006KT 14/02 A3001 RMK A01 T01430023  RH  044%=      5-min Rain = 0
KGO1 090722Z 13006KT 14/02 A3001 RMK A01 T01420023  RH  044%=      5-min Rain = 0
KGO1 090723Z 13006KT 14/02 A3001 RMK A01 T01420022  RH  044%=      5-min Rain = 0
KGO1 090724Z 14006KT 14/02 A3001 RMK A01 T01420022  RH  044%=      5-min Rain = 0
KGO1 090725Z 14006KT 14/02 A3001 RMK A01 T01430022  RH  044%=      5-min Rain = 0
KGO1 090726Z 15006KT 14/02 A3001 RMK A01 T01430023  RH  044%=      5-min Rain = 0
KGO1 090727Z 15007KT 14/02 A3001 RMK A01 T01430024  RH  045%=      5-min Rain = 0
KGO1 090728Z 14007KT 14/02 A3001 RMK A01 T01420024  RH  045%=      5-min Rain = 0
KGO1 090729Z 14006KT 14/02 A3001 RMK A01 T01430024  RH  045%=      5-min Rain = 0
KGO1 090730Z 14006KT 14/02 A3001 RMK A01 T01430024  RH  045%=      5-min Rain = 0
KGO1 090731Z 14006KT 14/03 A3001 RMK A01 T01440025  RH  045%=      5-min Rain = 0
KGO1 090732Z 14007KT 14/03 A3001 RMK A01 T01430025  RH  045%=      5-min Rain = 0
KGO1 090733Z 15006KT 14/03 A3001 RMK A01 T01440026  RH  045%=      5-min Rain = 0
KGO1 090734Z 14006KT 14/03 A3001 RMK A01 T01440026  RH  045%=      5-min Rain = 0
KGO1 090735Z 15006KT 14/03 A3001 RMK A01 T01440026  RH  045%=      5-min Rain = 0
KGO1 090736Z 15006KT 15/03 A3001 RMK A01 T01450026  RH  045%=      5-min Rain = 0
KGO1 090737Z 14006KT 15/03 A3001 RMK A01 T01450025  RH  044%=      5-min Rain = 0
KGO1 090738Z 14006KT 15/03 A3001 RMK A01 T01460025  RH  044%=      5-min Rain = 0
KGO1 090739Z 14006KT 15/03 A3001 RMK A01 T01470026  RH  044%=      5-min Rain = 0
KGO1 090740Z 14005KT 15/03 A3001 RMK A01 T01470025  RH  044%=      5-min Rain = 0
KGO1 090741Z 14006KT 15/03 A3001 RMK A01 T01480025  RH  044%=      5-min Rain = 0
KGO1 090742Z 14007KT 15/03 A3001 RMK A01 T01480025  RH  043%=      5-min Rain = 0
KGO1 090743Z 14007KT 15/03 A3001 RMK A01 T01480025  RH  043%=      5-min Rain = 0
KGO1 090744Z 14008KT 15/03 A3001 RMK A01 T01490025  RH  043%=      5-min Rain = 0
KGO1 090745Z 14007KT 15/03 A3001 RMK A01 T01500025  RH  043%=      5-min Rain = 0
KGO1 090746Z 14006KT 15/03 A3001 RMK A01 T01490026  RH  043%=      5-min Rain = 0
KGO1 090747Z 13007KT 15/03 A3001 RMK A01 T01480026  RH  044%=      5-min Rain = 0
KGO1 090748Z 14006KT 15/03 A3001 RMK A01 T01480025  RH  043%=      5-min Rain = 0
KGO1 090749Z 14006KT 15/03 A3001 RMK A01 T01480026  RH  044%=      5-min Rain = 0
KGO1 090750Z 14007KT 15/03 A3001 RMK A01 T01480026  RH  044%=      5-min Rain = 0
KGO1 090751Z 14007KT 15/03 A3001 RMK A01 T01480026  RH  044%=      5-min Rain = 0
KGO1 090752Z 15007KT 15/03 A3001 RMK A01 T01470026  RH  044%=      5-min Rain = 0
KGO1 090753Z 16006KT 15/03 A3001 RMK A01 T01480025  RH  044%=      5-min Rain = 0
KGO1 090754Z 15006KT 15/03 A3001 RMK A01 T01470026  RH  044%=      5-min Rain = 0
KGO1 090755Z 16005KT 15/03 A3001 RMK A01 T01470026  RH  044%=      5-min Rain = 0
KGO1 090756Z 16007KT 15/03 A3001 RMK A01 T01450026  RH  045%=      5-min Rain = 0
KGO1 090757Z 16008KT 14/03 A3001 RMK A01 T01430027  RH  045%=      5-min Rain = 0
KGO1 090758Z 15008KT 14/03 A3001 RMK A01 T01430027  RH  046%=      5-min Rain = 0
KGO1 090759Z 15006KT 14/03 A3001 RMK A01 T01430027  RH  045%=      5-min Rain = 0
KGO1 090800Z 15006KT 14/03 A3001 RMK A01 T01440027  RH  045%=      5-min Rain = 0
KGO1 090801Z 15006KT 14/03 A3001 RMK A01 T01440026  RH  045%=      5-min Rain = 0
KGO1 090802Z 15006KT 14/03 A3001 RMK A01 T01440026  RH  045%=      5-min Rain = 0
KGO1 090803Z 15007KT 15/03 A3001 RMK A01 T01450026  RH  045%=      5-min Rain = 0
KGO1 090804Z 15008KT 15/03 A3001 RMK A01 T01450026  RH  045%=      5-min Rain = 0
KGO1 090805Z 15007KT 14/03 A3002 RMK A01 T01440026  RH  045%=      5-min Rain = 0
KGO1 090806Z 15008KT 15/03 A3002 RMK A01 T01450026  RH  045%=      5-min Rain = 0
KGO1 090807Z 14009KT 15/03 A3002 RMK A01 T01460026  RH  045%=      5-min Rain = 0
KGO1 090808Z 15009KT 15/03 A3002 RMK A01 T01470027  RH  044%=      5-min Rain = 0
KGO1 090809Z 14009KT 15/03 A3002 RMK A01 T01470027  RH  044%=      5-min Rain = 0
KGO1 090810Z 14009KT 15/03 A3002 RMK A01 T01470028  RH  044%=      5-min Rain = 0
KGO1 090811Z 14007KT 15/03 A3002 RMK A01 T01470027  RH  044%=      5-min Rain = 0
KGO1 090812Z 14008KT 15/03 A3002 RMK A01 T01480028  RH  044%=      5-min Rain = 0
KGO1 090813Z 14009KT 15/03 A3002 RMK A01 T01480027  RH  044%=      5-min Rain = 0
KGO1 090814Z 14009KT 15/03 A3002 RMK A01 T01480027  RH  044%=      5-min Rain = 0
KGO1 090815Z 14009KT 15/03 A3002 RMK A01 T01490028  RH  044%=      5-min Rain = 0
KGO1 090816Z 14008KT 15/03 A3002 RMK A01 T01480028  RH  044%=      5-min Rain = 0
KGO1 090817Z 15009KT 15/03 A3002 RMK A01 T01480028  RH  044%=      5-min Rain = 0
KGO1 090818Z 15009KT 15/03 A3002 RMK A01 T01480028  RH  045%=      5-min Rain = 0
KGO1 090819Z 15009KT 15/03 A3002 RMK A01 T01480029  RH  045%=      5-min Rain = 0
KGO1 090820Z 14009KT 15/03 A3002 RMK A01 T01470029  RH  045%=      5-min Rain = 0
KGO1 090821Z 14009KT 15/03 A3002 RMK A01 T01460029  RH  045%=      5-min Rain = 0
KGO1 090822Z 14008KT 15/03 A3002 RMK A01 T01460029  RH  045%=      5-min Rain = 0
KGO1 090823Z 14009KT 15/03 A3002 RMK A01 T01460029  RH  045%=      5-min Rain = 0
KGO1 090824Z 14009KT 15/03 A3002 RMK A01 T01470030  RH  045%=      5-min Rain = 0
KGO1 090825Z 14009KT 15/03 A3002 RMK A01 T01470030  RH  045%=      5-min Rain = 0
KGO1 090826Z 14009KT 15/03 A3002 RMK A01 T01470030  RH  045%=      5-min Rain = 0
KGO1 090827Z 14008KT 15/03 A3002 RMK A01 T01480030  RH  045%=      5-min Rain = 0
KGO1 090828Z 14008KT 15/03 A3002 RMK A01 T01470031  RH  045%=      5-min Rain = 0
KGO1 090829Z 14008KT 15/03 A3002 RMK A01 T01470031  RH  046%=      5-min Rain = 0
KGO1 090830Z 14008KT 15/03 A3002 RMK A01 T01460031  RH  046%=      5-min Rain = 0
KGO1 090831Z 14008KT 15/03 A3002 RMK A01 T01460031  RH  046%=      5-min Rain = 0
KGO1 090832Z 14009KT 15/03 A3001 RMK A01 T01460031  RH  046%=      5-min Rain = 0
KGO1 090833Z 14009KT 15/03 A3001 RMK A01 T01460031  RH  046%=      5-min Rain = 0
KGO1 090834Z 14008KT 15/03 A3001 RMK A01 T01460031  RH  046%=      5-min Rain = 0
KGO1 090835Z 14010KT 15/03 A3001 RMK A01 T01460032  RH  046%=      5-min Rain = 0
KGO1 090836Z 14010KT 15/03 A3001 RMK A01 T01470032  RH  046%=      5-min Rain = 0
KGO1 090837Z 14010KT 15/03 A3001 RMK A01 T01470032  RH  046%=      5-min Rain = 0
KGO1 090838Z 14011KT 15/03 A3001 RMK A01 T01470032  RH  046%=      5-min Rain = 0
KGO1 090839Z 14010KT 15/03 A3001 RMK A01 T01470032  RH  046%=      5-min Rain = 0
KGO1 090840Z 14010KT 15/03 A3001 RMK A01 T01470033  RH  046%=      5-min Rain = 0
KGO1 090841Z 13010KT 15/03 A3001 RMK A01 T01470033  RH  046%=      5-min Rain = 0
KGO1 090842Z 13010KT 15/03 A3001 RMK A01 T01480034  RH  046%=      5-min Rain = 0
KGO1 090843Z 13010KT 15/03 A3001 RMK A01 T01470034  RH  046%=      5-min Rain = 0
KGO1 090844Z 13010KT 15/03 A3001 RMK A01 T01470034  RH  047%=      5-min Rain = 0
KGO1 090845Z 13009KT 15/03 A3001 RMK A01 T01470034  RH  047%=      5-min Rain = 0
KGO1 090846Z 13009KT 15/03 A3001 RMK A01 T01470034  RH  047%=      5-min Rain = 0
KGO1 090847Z 13009KT 15/03 A3001 RMK A01 T01460034  RH  047%=      5-min Rain = 0
KGO1 090848Z 13009KT 15/03 A3001 RMK A01 T01450034  RH  047%=      5-min Rain = 0
KGO1 090849Z 13008KT 14/04 A3001 RMK A01 T01440035  RH  048%=      5-min Rain = 0
KGO1 090850Z 13009KT 14/04 A3001 RMK A01 T01440035  RH  048%=      5-min Rain = 0
KGO1 090851Z 13009KT 14/03 A3001 RMK A01 T01430034  RH  048%=      5-min Rain = 0
KGO1 090852Z 13009KT 14/04 A3001 RMK A01 T01430035  RH  048%=      5-min Rain = 0
KGO1 090853Z 13008KT 14/04 A3001 RMK A01 T01430035  RH  048%=      5-min Rain = 0
KGO1 090854Z 14008KT 14/04 A3001 RMK A01 T01420035  RH  048%=      5-min Rain = 0
KGO1 090855Z 14008KT 14/04 A3001 RMK A01 T01420035  RH  048%=      5-min Rain = 0
KGO1 090856Z 13008KT 14/03 A3001 RMK A01 T01420034  RH  048%=      5-min Rain = 0
KGO1 090857Z 13008KT 14/03 A3001 RMK A01 T01420034  RH  048%=      5-min Rain = 0
KGO1 090858Z 14008KT 14/03 A3001 RMK A01 T01420034  RH  048%=      5-min Rain = 0
KGO1 090859Z 13008KT 14/03 A3001 RMK A01 T01420034  RH  048%=      5-min Rain = 0
KGO1 090900Z 13008KT 14/04 A3001 RMK A01 T01420035  RH  048%=      5-min Rain = 0
KGO1 090901Z 13008KT 14/04 A3001 RMK A01 T01420035  RH  049%=      5-min Rain = 0
KGO1 090902Z 13008KT 14/04 A30 RMK A01 T01420035  RH  049%=      5-min Rain = 0
KGO1 090903Z 13007KT 14/04 A30 RMK A01 T01410036  RH  049%=      5-min Rain = 0
KGO1 090904Z 13007KT 14/04 A30 RMK A01 T01400035  RH  049%=      5-min Rain = 0
KGO1 090905Z 13007KT 14/04 A30 RMK A01 T01390035  RH  050%=      5-min Rain = 0
KGO1 090906Z 14007KT 14/04 A30 RMK A01 T01380035  RH  050%=      5-min Rain = 0
KGO1 090907Z 14007KT 14/04 A30 RMK A01 T01380035  RH  050%=      5-min Rain = 0
KGO1 090908Z 14006KT 14/04 A30 RMK A01 T01380035  RH  050%=      5-min Rain = 0
KGO1 090909Z 14006KT 14/04 A3001 RMK A01 T01370035  RH  050%=      5-min Rain = 0
KGO1 090910Z 14006KT 14/04 A3001 RMK A01 T01370035  RH  050%=      5-min Rain = 0
KGO1 090911Z 14006KT 14/04 A3001 RMK A01 T01370035  RH  050%=      5-min Rain = 0
KGO1 090912Z 14006KT 14/04 A3001 RMK A01 T01360035  RH  050%=      5-min Rain = 0
KGO1 090913Z 14006KT 14/04 A3001 RMK A01 T01360035  RH  051%=      5-min Rain = 0
KGO1 090914Z 14007KT 14/04 A3001 RMK A01 T01350035  RH  051%=      5-min Rain = 0
KGO1 090915Z 13007KT 14/04 A3001 RMK A01 T01360035  RH  050%=      5-min Rain = 0
KGO1 090916Z 13006KT 14/04 A3001 RMK A01 T01380036  RH  050%=      5-min Rain = 0
KGO1 090917Z 13007KT 14/04 A3001 RMK A01 T01380036  RH  050%=      5-min Rain = 0
KGO1 090918Z 14007KT 14/04 A3001 RMK A01 T01380036  RH  050%=      5-min Rain = 0
KGO1 090919Z 14007KT 14/04 A3001 RMK A01 T01380036  RH  050%=      5-min Rain = 0
KGO1 090920Z 14007KT 14/04 A3001 RMK A01 T01370036  RH  050%=      5-min Rain = 0
KGO1 090921Z 13006KT 14/04 A3001 RMK A01 T01370036  RH  051%=      5-min Rain = 0
KGO1 090922Z 14006KT 14/04 A3001 RMK A01 T01370037  RH  051%=      5-min Rain = 0
KGO1 090923Z 14006KT 14/04 A3001 RMK A01 T01370037  RH  051%=      5-min Rain = 0
KGO1 090924Z 13006KT 14/04 A3001 RMK A01 T01360037  RH  051%=      5-min Rain = 0
KGO1 090925Z 14006KT 14/04 A3001 RMK A01 T01360037  RH  051%=      5-min Rain = 0
KGO1 090926Z 14006KT 14/04 A3001 RMK A01 T01350037  RH  051%=      5-min Rain = 0
KGO1 090927Z 14006KT 13/04 A3001 RMK A01 T01340037  RH  052%=      5-min Rain = 0
KGO1 090928Z 14006KT 13/04 A3001 RMK A01 T01340036  RH  052%=      5-min Rain = 0
KGO1 090929Z 13006KT 13/04 A3001 RMK A01 T01330036  RH  052%=      5-min Rain = 0
KGO1 090930Z 13006KT 13/04 A3001 RMK A01 T01320037  RH  052%=      5-min Rain = 0
KGO1 090931Z 13006KT 13/04 A3001 RMK A01 T01310037  RH  053%=      5-min Rain = 0
KGO1 090932Z 13006KT 13/04 A3001 RMK A01 T01310037  RH  053%=      5-min Rain = 0
KGO1 090933Z 13006KT 13/04 A3001 RMK A01 T01300037  RH  053%=      5-min Rain = 0
KGO1 090934Z 13006KT 13/04 A30 RMK A01 T01290037  RH  054%=      5-min Rain = 0
KGO1 090935Z 13006KT 13/04 A30 RMK A01 T01280037  RH  054%=      5-min Rain = 0
KGO1 090936Z 13006KT 13/04 A30 RMK A01 T01280037  RH  054%=      5-min Rain = 0
KGO1 090937Z 13006KT 13/04 A30 RMK A01 T01270037  RH  054%=      5-min Rain = 0
KGO1 090938Z 13006KT 13/04 A30 RMK A01 T01260037  RH  055%=      5-min Rain = 0
KGO1 090939Z 13006KT 13/04 A3001 RMK A01 T01260037  RH  055%=      5-min Rain = 0
KGO1 090940Z 14006KT 13/04 A3001 RMK A01 T01260038  RH  055%=      5-min Rain = 0
KGO1 090941Z 13006KT 13/04 A3001 RMK A01 T01260037  RH  055%=      5-min Rain = 0
KGO1 090942Z 13006KT 13/04 A3001 RMK A01 T01260037  RH  055%=      5-min Rain = 0
KGO1 090943Z 13006KT 13/04 A3001 RMK A01 T01260037  RH  054%=      5-min Rain = 0
KGO1 090944Z 13006KT 13/04 A3001 RMK A01 T01260037  RH  055%=      5-min Rain = 0
KGO1 090945Z 13006KT 13/04 A3001 RMK A01 T01250037  RH  055%=      5-min Rain = 0
KGO1 090946Z 13006KT 13/04 A3001 RMK A01 T01250037  RH  055%=      5-min Rain = 0
KGO1 090947Z 13006KT 12/04 A3001 RMK A01 T01240037  RH  055%=      5-min Rain = 0
KGO1 090948Z 12006KT 12/04 A30 RMK A01 T01230037  RH  056%=      5-min Rain = 0
KGO1 090949Z 12006KT 12/04 A30 RMK A01 T01210037  RH  057%=      5-min Rain = 0
KGO1 090950Z 12006KT 12/04 A30 RMK A01 T01200038  RH  057%=      5-min Rain = 0
KGO1 090951Z 13007KT 12/04 A30 RMK A01 T01200038  RH  057%=      5-min Rain = 0
KGO1 090952Z 12006KT 12/04 A30 RMK A01 T01190038  RH  057%=      5-min Rain = 0
KGO1 090953Z 13007KT 12/04 A30 RMK A01 T01190038  RH  058%=      5-min Rain = 0
KGO1 090954Z 13007KT 12/04 A30 RMK A01 T01190038  RH  058%=      5-min Rain = 0
KGO1 090955Z 13006KT 12/04 A30 RMK A01 T01190038  RH  058%=      5-min Rain = 0
KGO1 090956Z 13006KT 12/04 A30 RMK A01 T01180038  RH  058%=      5-min Rain = 0
KGO1 090957Z 13006KT 12/04 A30 RMK A01 T01180038  RH  058%=      5-min Rain = 0
KGO1 090958Z 13006KT 12/04 A3001 RMK A01 T01180038  RH  058%=      5-min Rain = 0
KGO1 090959Z 13006KT 12/04 A3001 RMK A01 T01170038  RH  058%=      5-min Rain = 0
KGO1 091000Z 13006KT 12/04 A3001 RMK A01 T01170038  RH  058%=      5-min Rain = 0
KGO1 091001Z 13006KT 12/04 A3001 RMK A01 T01170038  RH  058%=      5-min Rain = 0
KGO1 091002Z 14006KT 12/04 A3001 RMK A01 T01170038  RH  058%=      5-min Rain = 0
KGO1 091003Z 14006KT 12/04 A3001 RMK A01 T01170037  RH  058%=      5-min Rain = 0
KGO1 091004Z 14007KT 12/04 A3001 RMK A01 T01180037  RH  058%=      5-min Rain = 0
KGO1 091005Z 14007KT 12/04 A3001 RMK A01 T01180036  RH  057%=      5-min Rain = 0
KGO1 091006Z 14007KT 12/04 A3001 RMK A01 T01180036  RH  057%=      5-min Rain = 0
KGO1 091007Z 14007KT 12/04 A3001 RMK A01 T01180036  RH  057%=      5-min Rain = 0
KGO1 091008Z 14007KT 12/04 A3001 RMK A01 T01180037  RH  057%=      5-min Rain = 0
KGO1 091009Z 14007KT 12/04 A3001 RMK A01 T01180037  RH  058%=      5-min Rain = 0
KGO1 091010Z 14007KT 12/04 A3001 RMK A01 T01180037  RH  058%=      5-min Rain = 0
KGO1 091011Z 14008KT 12/04 A3001 RMK A01 T01180038  RH  058%=      5-min Rain = 0
KGO1 091012Z 14008KT 12/04 A3001 RMK A01 T01180037  RH  058%=      5-min Rain = 0
KGO1 091013Z 14008KT 12/04 A3001 RMK A01 T01180038  RH  058%=      5-min Rain = 0
KGO1 091014Z 14007KT 12/04 A3001 RMK A01 T01190038  RH  058%=      5-min Rain = 0
KGO1 091015Z 14007KT 12/04 A3001 RMK A01 T01190038  RH  057%=      5-min Rain = 0
KGO1 091016Z 14007KT 12/04 A3001 RMK A01 T01200038  RH  057%=      5-min Rain = 0
KGO1 091017Z 14007KT 12/04 A3001 RMK A01 T01200038  RH  057%=      5-min Rain = 0
KGO1 091018Z 15007KT 12/04 A3001 RMK A01 T01200038  RH  057%=      5-min Rain = 0
KGO1 091019Z 15007KT 12/04 A3001 RMK A01 T01200038  RH  057%=      5-min Rain = 0
KGO1 091020Z 14007KT 12/04 A3001 RMK A01 T01210038  RH  057%=      5-min Rain = 0
KGO1 091021Z 14007KT 12/04 A3001 RMK A01 T01210038  RH  057%=      5-min Rain = 0
KGO1 091022Z 14007KT 12/04 A3001 RMK A01 T01220038  RH  057%=      5-min Rain = 0
KGO1 091023Z 14007KT 12/04 A3001 RMK A01 T01210038  RH  057%=      5-min Rain = 0
KGO1 091024Z 13007KT 12/04 A3001 RMK A01 T01190038  RH  057%=      5-min Rain = 0
KGO1 091025Z 14007KT 12/04 A3001 RMK A01 T01180038  RH  058%=      5-min Rain = 0
KGO1 091026Z 14007KT 12/04 A3001 RMK A01 T01180038  RH  058%=      5-min Rain = 0
KGO1 091027Z 14007KT 12/04 A3001 RMK A01 T01180038  RH  058%=      5-min Rain = 0
KGO1 091028Z 14007KT 12/04 A3001 RMK A01 T01180038  RH  058%=      5-min Rain = 0
KGO1 091029Z 14008KT 12/04 A3001 RMK A01 T01180039  RH  058%=      5-min Rain = 0
KGO1 091030Z 14007KT 12/04 A3001 RMK A01 T01180038  RH  058%=      5-min Rain = 0
KGO1 091031Z 13007KT 12/04 A3001 RMK A01 T01180038  RH  058%=      5-min Rain = 0
KGO1 091032Z 13008KT 12/04 A3001 RMK A01 T01180038  RH  058%=      5-min Rain = 0
KGO1 091033Z 13007KT 12/04 A3001 RMK A01 T01170038  RH  058%=      5-min Rain = 0
KGO1 091034Z 13008KT 12/04 A3001 RMK A01 T01160039  RH  059%=      5-min Rain = 0
KGO1 091035Z 13008KT 12/04 A3001 RMK A01 T01150039  RH  059%=      5-min Rain = 0
KGO1 091036Z 13007KT 11/04 A3002 RMK A01 T01140039  RH  060%=      5-min Rain = 0
KGO1 091037Z 14008KT 11/04 A3002 RMK A01 T01130039  RH  060%=      5-min Rain = 0
KGO1 091038Z 14008KT 11/04 A3002 RMK A01 T01120038  RH  060%=      5-min Rain = 0
KGO1 091039Z 14007KT 11/04 A3002 RMK A01 T01120039  RH  060%=      5-min Rain = 0
KGO1 091040Z 14007KT 11/04 A3002 RMK A01 T01120039  RH  060%=      5-min Rain = 0
KGO1 091041Z 14006KT 11/04 A3002 RMK A01 T01130039  RH  060%=      5-min Rain = 0
KGO1 091042Z 13006KT 11/04 A3002 RMK A01 T01130039  RH  061%=      5-min Rain = 0
KGO1 091043Z 13006KT 11/04 A3002 RMK A01 T01120039  RH  061%=      5-min Rain = 0
KGO1 091044Z 13006KT 11/04 A3002 RMK A01 T01110039  RH  061%=      5-min Rain = 0
KGO1 091045Z 12005KT 11/04 A3002 RMK A01 T01090039  RH  062%=      5-min Rain = 0
KGO1 091046Z 12005KT 11/04 A3002 RMK A01 T01090039  RH  062%=      5-min Rain = 0
KGO1 091047Z 12006KT 11/04 A3001 RMK A01 T01090039  RH  062%=      5-min Rain = 0
KGO1 091048Z 12006KT 11/04 A3001 RMK A01 T01100039  RH  062%=      5-min Rain = 0
KGO1 091049Z 12005KT 11/04 A3001 RMK A01 T01110039  RH  061%=      5-min Rain = 0
KGO1 091050Z 12005KT 11/04 A3001 RMK A01 T01110039  RH  061%=      5-min Rain = 0
KGO1 091051Z 12005KT 11/04 A3002 RMK A01 T01110039  RH  061%=      5-min Rain = 0
KGO1 091052Z 11005KT 11/04 A3002 RMK A01 T01120039  RH  061%=      5-min Rain = 0
KGO1 091053Z 12006KT 11/04 A3002 RMK A01 T01130039  RH  061%=      5-min Rain = 0
KGO1 091054Z 12007KT 11/04 A3002 RMK A01 T01130039  RH  060%=      5-min Rain = 0
KGO1 091055Z 12006KT 11/04 A3002 RMK A01 T01140039  RH  060%=      5-min Rain = 0
KGO1 091056Z 12006KT 11/04 A3002 RMK A01 T01140039  RH  060%=      5-min Rain = 0
KGO1 091057Z 12006KT 12/04 A3002 RMK A01 T01150039  RH  060%=      5-min Rain = 0
KGO1 091058Z 12006KT 12/04 A3002 RMK A01 T01150039  RH  060%=      5-min Rain = 0
KGO1 091059Z 12005KT 12/04 A3002 RMK A01 T01150039  RH  060%=      5-min Rain = 0
KGO1 091100Z 12006KT 11/04 A3002 RMK A01 T01130039  RH  060%=      5-min Rain = 0
KGO1 091101Z 11006KT 11/04 A3002 RMK A01 T01140040  RH  060%=      5-min Rain = 0
KGO1 091102Z 12006KT 11/04 A3002 RMK A01 T01130040  RH  060%=      5-min Rain = 0
KGO1 091103Z 12006KT 11/04 A3002 RMK A01 T01130039  RH  060%=      5-min Rain = 0
KGO1 091104Z 12006KT 11/04 A3002 RMK A01 T01130039  RH  060%=      5-min Rain = 0
KGO1 091105Z 12006KT 11/04 A3002 RMK A01 T01130039  RH  060%=      5-min Rain = 0
KGO1 091106Z 11007KT 11/04 A3002 RMK A01 T01140039  RH  060%=      5-min Rain = 0
KGO1 091107Z 11007KT 11/04 A3002 RMK A01 T01140039  RH  060%=      5-min Rain = 0
KGO1 091108Z 11007KT 11/04 A3002 RMK A01 T01140039  RH  060%=      5-min Rain = 0
KGO1 091109Z 11006KT 11/04 A3002 RMK A01 T01140039  RH  060%=      5-min Rain = 0
KGO1 091110Z 10006KT 11/04 A3002 RMK A01 T01140039  RH  060%=      5-min Rain = 0
KGO1 091111Z 10006KT 11/04 A3002 RMK A01 T01140039  RH  060%=      5-min Rain = 0
KGO1 091112Z 09005KT 12/04 A3002 RMK A01 T01150038  RH  059%=      5-min Rain = 0
KGO1 091113Z 09006KT 12/04 A3002 RMK A01 T01150038  RH  059%=      5-min Rain = 0
KGO1 091114Z 09006KT 12/04 A3002 RMK A01 T01150038  RH  059%=      5-min Rain = 0
KGO1 091115Z 09006KT 12/04 A3002 RMK A01 T01150038  RH  059%=      5-min Rain = 0
KGO1 091116Z 09006KT 12/04 A3002 RMK A01 T01150038  RH  059%=      5-min Rain = 0
KGO1 091117Z 09006KT 12/04 A3002 RMK A01 T01150038  RH  059%=      5-min Rain = 0
KGO1 091118Z 09006KT 12/04 A3002 RMK A01 T01160038  RH  059%=      5-min Rain = 0
KGO1 091119Z 09006KT 12/04 A3002 RMK A01 T01180038  RH  058%=      5-min Rain = 0
KGO1 091120Z 09007KT 12/04 A3002 RMK A01 T01180038  RH  058%=      5-min Rain = 0
KGO1 091121Z 09007KT 12/04 A3002 RMK A01 T01190039  RH  058%=      5-min Rain = 0
KGO1 091122Z 09007KT 12/04 A3002 RMK A01 T01190039  RH  058%=      5-min Rain = 0
KGO1 091123Z 08007KT 12/04 A3002 RMK A01 T01190039  RH  058%=      5-min Rain = 0
KGO1 091124Z 08006KT 12/04 A3002 RMK A01 T01200039  RH  058%=      5-min Rain = 0
KGO1 091125Z 08006KT 12/04 A3002 RMK A01 T01210039  RH  057%=      5-min Rain = 0
KGO1 091126Z 09007KT 12/04 A3003 RMK A01 T01210039  RH  057%=      5-min Rain = 0
KGO1 091127Z 09007KT 12/04 A3003 RMK A01 T01210039  RH  057%=      5-min Rain = 0
KGO1 091128Z 09007KT 12/04 A3003 RMK A01 T01210040  RH  057%=      5-min Rain = 0
KGO1 091129Z 08006KT 12/04 A3003 RMK A01 T01210039  RH  057%=      5-min Rain = 0
KGO1 091130Z 08006KT 12/04 A3003 RMK A01 T01210039  RH  057%=      5-min Rain = 0
KGO1 091131Z 08006KT 12/04 A3003 RMK A01 T01200040  RH  058%=      5-min Rain = 0
KGO1 091132Z 07005KT 12/04 A3003 RMK A01 T01190040  RH  059%=      5-min Rain = 0
KGO1 091133Z 07006KT 12/04 A3003 RMK A01 T01170040  RH  059%=      5-min Rain = 0
KGO1 091134Z 07007KT 12/04 A3003 RMK A01 T01170040  RH  059%=      5-min Rain = 0
KGO1 091135Z 06007KT 12/04 A3003 RMK A01 T01160041  RH  060%=      5-min Rain = 0
KGO1 091136Z 06007KT 11/04 A3003 RMK A01 T01140041  RH  061%=      5-min Rain = 0
KGO1 091137Z 06007KT 11/04 A3003 RMK A01 T01140042  RH  061%=      5-min Rain = 0
KGO1 091138Z 05006KT 11/04 A3003 RMK A01 T01140043  RH  062%=      5-min Rain = 0
KGO1 091139Z 05006KT 11/04 A3003 RMK A01 T01130042  RH  062%=      5-min Rain = 0
KGO1 091140Z 05006KT 11/04 A3004 RMK A01 T01130042  RH  062%=      5-min Rain = 0
KGO1 091141Z 05006KT 11/04 A3004 RMK A01 T01110041  RH  062%=      5-min Rain = 0
KGO1 091142Z 05006KT 11/04 A3004 RMK A01 T01090040  RH  062%=      5-min Rain = 0
KGO1 091143Z 05006KT 11/04 A3004 RMK A01 T01080040  RH  063%=      5-min Rain = 0
KGO1 091144Z 04006KT 11/04 A3004 RMK A01 T01070040  RH  063%=      5-min Rain = 0
KGO1 091145Z 03007KT 11/04 A3004 RMK A01 T01050040  RH  064%=      5-min Rain = 0
KGO1 091146Z 02007KT 10/04 A3005 RMK A01 T01030040  RH  065%=      5-min Rain = 0
KGO1 091147Z 02008KT 10/04 A3005 RMK A01 T01020040  RH  066%=      5-min Rain = 0
KGO1 091148Z 02008KT 10/04 A3005 RMK A01 T00990040  RH  067%=      5-min Rain = 0
KGO1 091149Z 01008KT 10/04 A3005 RMK A01 T00960040  RH  068%=      5-min Rain = 0
KGO1 091150Z 01008KT 09/04 A3005 RMK A01 T00940040  RH  069%=      5-min Rain = 0
KGO1 091151Z 01007KT 10/04 A3005 RMK A01 T00950040  RH  069%=      5-min Rain = 0
KGO1 091152Z 01008KT 10/04 A3005 RMK A01 T00970041  RH  068%=      5-min Rain = 0
KGO1 091153Z 00008KT 10/04 A3005 RMK A01 T00970041  RH  068%=      5-min Rain = 0
KGO1 091154Z 00008KT 10/04 A3005 RMK A01 T00960041  RH  069%=      5-min Rain = 0
KGO1 091155Z 00009KT 09/04 A3005 RMK A01 T00940040  RH  069%=      5-min Rain = 0
KGO1 091156Z 00009KT 09/04 A3005 RMK A01 T00930040  RH  070%=      5-min Rain = 0
KGO1 091157Z 00009KT 09/04 A3005 RMK A01 T00920040  RH  070%=      5-min Rain = 0
KGO1 091158Z 00009KT 09/04 A3005 RMK A01 T00910040  RH  070%=      5-min Rain = 0
KGO1 091159Z 00008KT 09/04 A3005 RMK A01 T00900039  RH  070%=      5-min Rain = 0
KGO1 091200Z 36008KT 09/04 A3005 RMK A01 T00900039  RH  071%=      5-min Rain = 0
KGO1 091201Z 36008KT 09/04 A3005 RMK A01 T00890039  RH  071%=      5-min Rain = 0
KGO1 091202Z 36008KT 09/04 A3005 RMK A01 T00870039  RH  072%=      5-min Rain = 0
KGO1 091203Z 36008KT 09/04 A3005 RMK A01 T00860039  RH  072%=      5-min Rain = 0
KGO1 091204Z 00007KT 09/04 A3005 RMK A01 T00860039  RH  072%=      5-min Rain = 0
KGO1 091205Z 00007KT 09/04 A3005 RMK A01 T00860039  RH  072%=      5-min Rain = 0
KGO1 091206Z 00007KT 09/04 A3005 RMK A01 T00850039  RH  073%=      5-min Rain = 0
KGO1 091207Z 01006KT 08/04 A3005 RMK A01 T00840039  RH  073%=      5-min Rain = 0
KGO1 091208Z 01007KT 08/04 A3005 RMK A01 T00830038  RH  074%=      5-min Rain = 0
KGO1 091209Z 01006KT 08/04 A3005 RMK A01 T00820038  RH  074%=      5-min Rain = 0
KGO1 091210Z 01006KT 08/04 A3005 RMK A01 T00810039  RH  074%=      5-min Rain = 0
KGO1 091211Z 01005KT 08/04 A3005 RMK A01 T00810038  RH  075%=      5-min Rain = 0
KGO1 091212Z 01006KT 08/04 A3005 RMK A01 T00800038  RH  075%=      5-min Rain = 0
KGO1 091213Z 02006KT 08/04 A3005 RMK A01 T00800038  RH  075%=      5-min Rain = 0
KGO1 091214Z 02007KT 08/04 A3005 RMK A01 T00790038  RH  075%=      5-min Rain = 0
KGO1 091215Z 02007KT 08/04 A3005 RMK A01 T00780038  RH  076%=      5-min Rain = 0
KGO1 091216Z 02008KT 08/04 A3005 RMK A01 T00780039  RH  076%=      5-min Rain = 0
KGO1 091217Z 02008KT 08/04 A3005 RMK A01 T00780040  RH  077%=      5-min Rain = 0
KGO1 091218Z 02008KT 08/04 A3005 RMK A01 T00780040  RH  077%=      5-min Rain = 0
KGO1 091219Z 02007KT 08/04 A3005 RMK A01 T00790041  RH  077%=      5-min Rain = 0
KGO1 091220Z 02008KT 08/04 A3005 RMK A01 T00800042  RH  077%=      5-min Rain = 0
KGO1 091221Z 03008KT 08/04 A3005 RMK A01 T00800042  RH  077%=      5-min Rain = 0
KGO1 091222Z 03008KT 08/04 A3005 RMK A01 T00810042  RH  076%=      5-min Rain = 0
KGO1 091223Z 03008KT 08/04 A3005 RMK A01 T00820042  RH  076%=      5-min Rain = 0
KGO1 091224Z 03007KT 08/04 A3005 RMK A01 T00820042  RH  076%=      5-min Rain = 0
KGO1 091225Z 03008KT 08/04 A3006 RMK A01 T00820042  RH  076%=      5-min Rain = 0
KGO1 091226Z 03009KT 08/04 A3006 RMK A01 T00830043  RH  076%=      5-min Rain = 0
KGO1 091227Z 03008KT 09/04 A3006 RMK A01 T00850044  RH  076%=      5-min Rain = 0
KGO1 091228Z 04008KT 09/05 A3006 RMK A01 T00870045  RH  075%=      5-min Rain = 0
KGO1 091229Z 04007KT 09/04 A3006 RMK A01 T00880044  RH  074%=      5-min Rain = 0
KGO1 091230Z 04007KT 09/04 A3006 RMK A01 T00880044  RH  074%=      5-min Rain = 0
KGO1 091231Z 03007KT 09/04 A3006 RMK A01 T00880044  RH  074%=      5-min Rain = 0
KGO1 091232Z 03007KT 09/05 A3006 RMK A01 T00880045  RH  074%=      5-min Rain = 0
KGO1 091233Z 03007KT 09/05 A3006 RMK A01 T00880045  RH  074%=      5-min Rain = 0
KGO1 091234Z 03007KT 09/05 A3006 RMK A01 T00880045  RH  074%=      5-min Rain = 0
KGO1 091235Z 03007KT 09/05 A3007 RMK A01 T00880045  RH  074%=      5-min Rain = 0
KGO1 091236Z 03007KT 09/05 A3007 RMK A01 T00870045  RH  075%=      5-min Rain = 0
KGO1 091237Z 03007KT 09/05 A3007 RMK A01 T00860045  RH  075%=      5-min Rain = 0
KGO1 091238Z 03008KT 09/05 A3007 RMK A01 T00860045  RH  075%=      5-min Rain = 0
KGO1 091239Z 04008KT 09/05 A3007 RMK A01 T00870046  RH  075%=      5-min Rain = 0
KGO1 091240Z 04008KT 09/05 A3007 RMK A01 T00880047  RH  075%=      5-min Rain = 0
KGO1 091241Z 04007KT 09/05 A3007 RMK A01 T00880047  RH  075%=      5-min Rain = 0
KGO1 091242Z 04007KT 09/05 A3007 RMK A01 T00880047  RH  075%=      5-min Rain = 0
KGO1 091243Z 04007KT 09/05 A3007 RMK A01 T00890048  RH  075%=      5-min Rain = 0
KGO1 091244Z 04007KT 09/05 A3007 RMK A01 T00900048  RH  075%=      5-min Rain = 0
KGO1 091245Z 04007KT 09/05 A3007 RMK A01 T00910049  RH  075%=      5-min Rain = 0
KGO1 091246Z 03008KT 09/05 A3007 RMK A01 T00910049  RH  075%=      5-min Rain = 0
KGO1 091247Z 03008KT 09/05 A3007 RMK A01 T00910049  RH  075%=      5-min Rain = 0
KGO1 091248Z 03009KT 09/05 A3007 RMK A01 T00910048  RH  074%=      5-min Rain = 0
KGO1 091249Z 03009KT 09/05 A3007 RMK A01 T00920049  RH  074%=      5-min Rain = 0
KGO1 091250Z 03009KT 09/05 A3007 RMK A01 T00930049  RH  074%=      5-min Rain = 0
KGO1 091251Z 03009KT 09/05 A3007 RMK A01 T00930049  RH  074%=      5-min Rain = 0
KGO1 091252Z 03008KT 09/05 A3007 RMK A01 T00930049  RH  074%=      5-min Rain = 0
KGO1 091253Z 03008KT 09/05 A3007 RMK A01 T00930049  RH  074%=      5-min Rain = 0
KGO1 091254Z 03008KT 09/05 A3007 RMK A01 T00920049  RH  074%=      5-min Rain = 0
KGO1 091255Z 03008KT 09/05 A3007 RMK A01 T00920049  RH  074%=      5-min Rain = 0
KGO1 091256Z 03008KT 09/05 A3007 RMK A01 T00930049  RH  074%=      5-min Rain = 0
KGO1 091257Z 03008KT 09/05 A3007 RMK A01 T00940049  RH  074%=      5-min Rain = 0
KGO1 091258Z 03008KT 09/05 A3007 RMK A01 T00940049  RH  074%=      5-min Rain = 0
KGO1 091259Z 03009KT 09/05 A3007 RMK A01 T00940049  RH  074%=      5-min Rain = 0
KGO1 091300Z 03009KT 09/05 A3007 RMK A01 T00940049  RH  073%=      5-min Rain = 0
KGO1 091301Z 03009KT 10/05 A3007 RMK A01 T00950050  RH  074%=      5-min Rain = 0
KGO1 091302Z 03009KT 10/05 A3007 RMK A01 T00950051  RH  074%=      5-min Rain = 0
KGO1 091303Z 03009KT 10/05 A3007 RMK A01 T00950050  RH  073%=      5-min Rain = 0
KGO1 091304Z 03009KT 10/05 A3007 RMK A01 T00960050  RH  073%=      5-min Rain = 0
KGO1 091305Z 04009KT 10/05 A3007 RMK A01 T00960051  RH  073%=      5-min Rain = 0
KGO1 091306Z 03008KT 10/05 A3007 RMK A01 T00960051  RH  073%=      5-min Rain = 0
KGO1 091307Z 03008KT 10/05 A3007 RMK A01 T00960052  RH  074%=      5-min Rain = 0
KGO1 091308Z 03009KT 10/05 A3007 RMK A01 T00970051  RH  073%=      5-min Rain = 0
KGO1 091309Z 03010KT 10/05 A3007 RMK A01 T00970051  RH  073%=      5-min Rain = 0
KGO1 091310Z 03009KT 10/05 A3007 RMK A01 T00980051  RH  073%=      5-min Rain = 0
KGO1 091311Z 03010KT 10/05 A3007 RMK A01 T00980052  RH  073%=      5-min Rain = 0
KGO1 091312Z 03011KT 10/05 A3008 RMK A01 T00980052  RH  073%=      5-min Rain = 0
KGO1 091313Z 03011KT 10/05 A3008 RMK A01 T00980051  RH  072%=      5-min Rain = 0
KGO1 091314Z 03012KT 10/05 A3008 RMK A01 T00990051  RH  072%=      5-min Rain = 0
KGO1 091315Z 03011KT 10/05 A3008 RMK A01 T00990051  RH  072%=      5-min Rain = 0
KGO1 091316Z 03011KT 10/05 A3008 RMK A01 T01000051  RH  072%=      5-min Rain = 0
KGO1 091317Z 03011KT 10/05 A3008 RMK A01 T01000051  RH  072%=      5-min Rain = 0
KGO1 091318Z 03011KT 10/05 A3008 RMK A01 T01000051  RH  072%=      5-min Rain = 0
KGO1 091319Z 03010KT 10/05 A3008 RMK A01 T01000051  RH  072%=      5-min Rain = 0
KGO1 091320Z 03011KT 10/05 A3008 RMK A01 T01000051  RH  072%=      5-min Rain = 0
KGO1 091321Z 03012KT 10/05 A3008 RMK A01 T01000051  RH  071%=      5-min Rain = 0
KGO1 091322Z 03010KT 10/05 A3008 RMK A01 T01000051  RH  072%=      5-min Rain = 0
KGO1 091323Z 03012KT 10/05 A3008 RMK A01 T01000051  RH  072%=      5-min Rain = 0
KGO1 091324Z 03011KT 10/05 A3008 RMK A01 T01010052  RH  071%=      5-min Rain = 0
KGO1 091325Z 03010KT 10/05 A3009 RMK A01 T01010052  RH  071%=      5-min Rain = 0
KGO1 091326Z 03010KT 10/05 A3009 RMK A01 T01020053  RH  071%=      5-min Rain = 0
KGO1 091327Z 03011KT 10/05 A3009 RMK A01 T01030053  RH  071%=      5-min Rain = 0
KGO1 091328Z 03011KT 10/05 A3009 RMK A01 T01030052  RH  071%=      5-min Rain = 0
KGO1 091329Z 03011KT 10/05 A3009 RMK A01 T01030053  RH  071%=      5-min Rain = 0
KGO1 091330Z 04010KT 10/05 A3009 RMK A01 T01030053  RH  071%=      5-min Rain = 0
KGO1 091331Z 03011KT 10/05 A3009 RMK A01 T01030053  RH  071%=      5-min Rain = 0
KGO1 091332Z 03011KT 10/05 A3009 RMK A01 T01030053  RH  071%=      5-min Rain = 0
KGO1 091333Z 04012KT 10/05 A3009 RMK A01 T01040052  RH  071%=      5-min Rain = 0
KGO1 091334Z 04009KT 10/05 A3009 RMK A01 T01040053  RH  071%=      5-min Rain = 0
KGO1 091335Z 04010KT 10/06 A3009 RMK A01 T01040055  RH  071%=      5-min Rain = 0
KGO1 091336Z 03009KT 11/05 A3009 RMK A01 T01050054  RH  071%=      5-min Rain = 0
KGO1 091337Z 03010KT 11/06 A3009 RMK A01 T01050055  RH  071%=      5-min Rain = 0
KGO1 091338Z 04012KT 11/05 A3009 RMK A01 T01050054  RH  071%=      5-min Rain = 0
KGO1 091339Z 04010KT 11/06 A3009 RMK A01 T01050055  RH  071%=      5-min Rain = 0
KGO1 091340Z 03009KT 11/06 A3009 RMK A01 T01050055  RH  071%=      5-min Rain = 0
KGO1 091341Z 04010KT 11/06 A3009 RMK A01 T01050055  RH  071%=      5-min Rain = 0
KGO1 091342Z 03010KT 11/06 A3009 RMK A01 T01050055  RH  071%=      5-min Rain = 0
KGO1 091343Z 04011KT 11/06 A3009 RMK A01 T01050055  RH  071%=      5-min Rain = 0
KGO1 091344Z 03012KT 11/05 A3009 RMK A01 T01050054  RH  071%=      5-min Rain = 0
KGO1 091345Z 03010KT 11/05 A3009 RMK A01 T01050054  RH  071%=      5-min Rain = 0
KGO1 091346Z 04010KT 11/06 A3009 RMK A01 T01060056  RH  071%=      5-min Rain = 0
KGO1 091347Z 03012KT 11/06 A3009 RMK A01 T01060055  RH  071%=      5-min Rain = 0
KGO1 091348Z 04010KT 11/06 A3009 RMK A01 T01060055  RH  071%=      5-min Rain = 0
KGO1 091349Z 04010KT 11/06 A3009 RMK A01 T01070056  RH  071%=      5-min Rain = 0
KGO1 091350Z 04010KT 11/06 A3009 RMK A01 T01080057  RH  071%=      5-min Rain = 0
KGO1 091351Z 04012KT 11/06 A3009 RMK A01 T01090058  RH  071%=      5-min Rain = 0
KGO1 091352Z 04013KT 11/06 A3009 RMK A01 T01100057  RH  070%=      5-min Rain = 0
KGO1 091353Z 04012KT 11/06 A3009 RMK A01 T01100057  RH  070%=      5-min Rain = 0
KGO1 091354Z 04012KT 11/06 A301 RMK A01 T01110056  RH  069%=      5-min Rain = 0
KGO1 091355Z 03012KT 11/06 A301 RMK A01 T01110057  RH  069%=      5-min Rain = 0
KGO1 091356Z 03013KT 11/06 A301 RMK A01 T01120057  RH  069%=      5-min Rain = 0
KGO1 091357Z 03011KT 11/06 A301 RMK A01 T01120057  RH  069%=      5-min Rain = 0
KGO1 091358Z 04011KT 11/06 A301 RMK A01 T01130058  RH  069%=      5-min Rain = 0
KGO1 091359Z 04013KT 11/06 A301 RMK A01 T01130057  RH  069%=      5-min Rain = 0
KGO1 091400Z 04014KT 11/06 A301 RMK A01 T01130058  RH  069%=      5-min Rain = 0
KGO1 091401Z 04013KT 11/06 A301 RMK A01 T01120056  RH  069%=      5-min Rain = 0
KGO1 091402Z 03012KT 11/06 A301 RMK A01 T01120057  RH  069%=      5-min Rain = 0
KGO1 091403Z 04013G18KT 11/06 A301 RMK A01 T01120057  RH  069%=      5-min Rain = 0
KGO1 091404Z 04013KT 11/06 A301 RMK A01 T01120057  RH  069%=      5-min Rain = 0
KGO1 091405Z 04011KT 11/06 A301 RMK A01 T01120056  RH  069%=      5-min Rain = 0
KGO1 091406Z 04012KT 11/06 A301 RMK A01 T01120058  RH  069%=      5-min Rain = 0
KGO1 091407Z 04011KT 11/06 A301 RMK A01 T01130058  RH  069%=      5-min Rain = 0
KGO1 091408Z 04014KT 11/06 A301 RMK A01 T01140057  RH  068%=      5-min Rain = 0
KGO1 091409Z 04011KT 11/06 A301 RMK A01 T01130059  RH  069%=      5-min Rain = 0
KGO1 091410Z 03012KT 11/06 A301 RMK A01 T01140058  RH  068%=      5-min Rain = 0
KGO1 091411Z 04012KT 11/06 A301 RMK A01 T01140058  RH  069%=      5-min Rain = 0
KGO1 091412Z 05012KT 11/06 A3011 RMK A01 T01140058  RH  069%=      5-min Rain = 0
KGO1 091413Z 04009KT 11/06 A3011 RMK A01 T01140059  RH  069%=      5-min Rain = 0
KGO1 091414Z 03011KT 12/06 A3011 RMK A01 T01150060  RH  069%=      5-min Rain = 0
KGO1 091415Z 04010G15KT 12/06 A3011 RMK A01 T01150060  RH  069%=      5-min Rain = 0
KGO1 091416Z 03012KT 12/06 A3011 RMK A01 T01150059  RH  068%=      5-min Rain = 0
KGO1 091417Z 04012KT 12/06 A3011 RMK A01 T01150058  RH  068%=      5-min Rain = 0
KGO1 091418Z 04012KT 11/06 A3011 RMK A01 T01140059  RH  069%=      5-min Rain = 0
KGO1 091419Z 03014KT 11/06 A3011 RMK A01 T01140058  RH  068%=      5-min Rain = 0
KGO1 091420Z 03015KT 11/06 A3011 RMK A01 T01140058  RH  068%=      5-min Rain = 0
KGO1 091421Z 03015KT 11/06 A3011 RMK A01 T01130057  RH  068%=      5-min Rain = 0
KGO1 091422Z 03014KT 11/06 A3011 RMK A01 T01130057  RH  068%=      5-min Rain = 0
KGO1 091423Z 03014KT 11/06 A3011 RMK A01 T01130058  RH  069%=      5-min Rain = 0
KGO1 091424Z 03012KT 11/06 A3011 RMK A01 T01130059  RH  069%=      5-min Rain = 0
KGO1 091425Z 04012KT 11/06 A3011 RMK A01 T01140057  RH  068%=      5-min Rain = 0
KGO1 091426Z 04011KT 11/06 A3011 RMK A01 T01140059  RH  069%=      5-min Rain = 0
KGO1 091427Z 04013KT 11/06 A3011 RMK A01 T01140059  RH  069%=      5-min Rain = 0
KGO1 091428Z 05014KT 11/06 A3011 RMK A01 T01140058  RH  068%=      5-min Rain = 0
KGO1 091429Z 05014KT 11/06 A3011 RMK A01 T01130058  RH  068%=      5-min Rain = 0
KGO1 091430Z 05014KT 11/06 A3011 RMK A01 T01130058  RH  069%=      5-min Rain = 0
KGO1 091431Z 04011KT 11/06 A3011 RMK A01 T01120058  RH  069%=      5-min Rain = 0
KGO1 091432Z 05012KT 11/06 A3011 RMK A01 T01130060  RH  070%=      5-min Rain = 0
KGO1 091433Z 05012KT 11/06 A3011 RMK A01 T01140058  RH  069%=      5-min Rain = 0
KGO1 091434Z 05011KT 11/06 A3011 RMK A01 T01140060  RH  069%=      5-min Rain = 0
KGO1 091435Z 04012KT 11/06 A3011 RMK A01 T01140059  RH  069%=      5-min Rain = 0
KGO1 091436Z 04011KT 11/06 A3011 RMK A01 T01140060  RH  070%=      5-min Rain = 0
KGO1 091437Z 04013KT 12/06 A3011 RMK A01 T01150059  RH  069%=      5-min Rain = 0
KGO1 091438Z 04012KT 12/06 A3011 RMK A01 T01150059  RH  068%=      5-min Rain = 0
KGO1 091439Z 04014KT 12/06 A3011 RMK A01 T01150059  RH  069%=      5-min Rain = 0
KGO1 091440Z 05015KT 11/06 A3011 RMK A01 T01140058  RH  068%=      5-min Rain = 0
KGO1 091441Z 05014KT 11/06 A3011 RMK A01 T01140057  RH  068%=      5-min Rain = 0
KGO1 091442Z 04012KT 11/06 A3011 RMK A01 T01130057  RH  068%=      5-min Rain = 0
KGO1 091443Z 04012KT 12/06 A3011 RMK A01 T01150060  RH  069%=      5-min Rain = 0
KGO1 091444Z 04012KT 12/06 A3011 RMK A01 T01160060  RH  068%=      5-min Rain = 0
KGO1 091445Z 04014KT 12/06 A3011 RMK A01 T01160059  RH  068%=      5-min Rain = 0
KGO1 091446Z 04012KT 12/06 A3011 RMK A01 T01160059  RH  068%=      5-min Rain = 0
KGO1 091447Z 04013KT 12/06 A3011 RMK A01 T01160060  RH  068%=      5-min Rain = 0
KGO1 091448Z 04012KT 12/06 A3011 RMK A01 T01160061  RH  069%=      5-min Rain = 0
KGO1 091449Z 05012KT 12/06 A3011 RMK A01 T01180061  RH  068%=      5-min Rain = 0
KGO1 091450Z 05014KT 12/06 A3011 RMK A01 T01180060  RH  068%=      5-min Rain = 0
KGO1 091451Z 06013KT 12/06 A3011 RMK A01 T01180060  RH  068%=      5-min Rain = 0
KGO1 091452Z 05013KT 12/06 A3011 RMK A01 T01160059  RH  068%=      5-min Rain = 0
KGO1 091453Z 06013KT 12/06 A3011 RMK A01 T01160058  RH  068%=      5-min Rain = 0
KGO1 091454Z 06012KT 11/06 A3011 RMK A01 T01140058  RH  068%=      5-min Rain = 0
KGO1 091455Z 06013KT 11/06 A3011 RMK A01 T01140058  RH  069%=      5-min Rain = 0
KGO1 091456Z 06011KT 11/06 A3011 RMK A01 T01140057  RH  068%=      5-min Rain = 0
KGO1 091457Z 06014KT 11/06 A3011 RMK A01 T01140059  RH  069%=      5-min Rain = 0
KGO1 091458Z 06014KT 12/06 A3011 RMK A01 T01150058  RH  068%=      5-min Rain = 0
KGO1 091459Z 06013KT 11/06 A3011 RMK A01 T01140058  RH  068%=      5-min Rain = 0
KGO1 091500Z 06010KT 12/06 A3011 RMK A01 T01150059  RH  069%=      5-min Rain = 0
KGO1 091501Z 06010KT 12/06 A3011 RMK A01 T01160063  RH  070%=      5-min Rain = 0
KGO1 091502Z 05012KT 12/06 A3011 RMK A01 T01170060  RH  068%=      5-min Rain = 0
KGO1 091503Z 05014KT 12/06 A3011 RMK A01 T01170060  RH  068%=      5-min Rain = 0
KGO1 091504Z 05015KT 12/06 A3011 RMK A01 T01160059  RH  068%=      5-min Rain = 0
KGO1 091505Z 05013KT 12/06 A3011 RMK A01 T01150058  RH  068%=      5-min Rain = 0
KGO1 091506Z 05012KT 12/06 A3011 RMK A01 T01150058  RH  068%=      5-min Rain = 0
KGO1 091507Z 06015KT 12/06 A3011 RMK A01 T01150059  RH  068%=      5-min Rain = 0
KGO1 091508Z 06014KT 12/06 A3011 RMK A01 T01160058  RH  068%=      5-min Rain = 0
KGO1 091509Z 06014KT 12/06 A3011 RMK A01 T01160059  RH  068%=      5-min Rain = 0
KGO1 091510Z 06013KT 12/06 A3011 RMK A01 T01160058  RH  067%=      5-min Rain = 0
KGO1 091511Z 08012KT 12/06 A3011 RMK A01 T01160058  RH  067%=      5-min Rain = 0
KGO1 091512Z 07012KT 12/06 A3011 RMK A01 T01170057  RH  067%=      5-min Rain = 0
KGO1 091513Z 07012KT 12/06 A3011 RMK A01 T01160059  RH  068%=      5-min Rain = 0
KGO1 091514Z 07012KT 12/06 A3011 RMK A01 T01170059  RH  068%=      5-min Rain = 0
KGO1 091515Z 07010KT 12/06 A301 RMK A01 T01180060  RH  068%=      5-min Rain = 0
KGO1 091516Z 07010KT 12/06 A301 RMK A01 T01190063  RH  068%=      5-min Rain = 0
KGO1 091517Z 06014KT 12/06 A301 RMK A01 T01210063  RH  067%=      5-min Rain = 0
KGO1 091518Z 07013KT 12/06 A301 RMK A01 T01210061  RH  066%=      5-min Rain = 0
KGO1 091519Z 07012KT 12/06 A301 RMK A01 T01200060  RH  066%=      5-min Rain = 0
KGO1 091520Z 07012KT 12/06 A301 RMK A01 T01200060  RH  067%=      5-min Rain = 0
KGO1 091521Z 07013KT 12/06 A301 RMK A01 T01190059  RH  067%=      5-min Rain = 0
KGO1 091522Z 07012KT 12/06 A3011 RMK A01 T01190058  RH  067%=      5-min Rain = 0
KGO1 091523Z 06014KT 12/06 A3011 RMK A01 T01180059  RH  067%=      5-min Rain = 0
KGO1 091524Z 06012KT 12/06 A3011 RMK A01 T01180059  RH  067%=      5-min Rain = 0
KGO1 091525Z 06014KT 12/06 A3011 RMK A01 T01180059  RH  067%=      5-min Rain = 0
KGO1 091526Z 06013KT 12/06 A3011 RMK A01 T01180059  RH  067%=      5-min Rain = 0
KGO1 091527Z 06014KT 12/06 A3011 RMK A01 T01190060  RH  067%=      5-min Rain = 0
KGO1 091528Z 08012KT 12/06 A3011 RMK A01 T01210062  RH  067%=      5-min Rain = 0
KGO1 091529Z 08012G18KT 12/06 A3011 RMK A01 T01220061  RH  066%=      5-min Rain = 0
KGO1 091530Z 08011KT 12/06 A3011 RMK A01 T01230061  RH  066%=      5-min Rain = 0
KGO1 091531Z 08010KT 12/06 A3011 RMK A01 T01230061  RH  066%=      5-min Rain = 0
KGO1 091532Z 07011KT 12/06 A3011 RMK A01 T01240062  RH  066%=      5-min Rain = 0
KGO1 091533Z 07016KT 12/06 A3011 RMK A01 T01230060  RH  065%=      5-min Rain = 0
KGO1 091534Z 07016KT 12/06 A3011 RMK A01 T01210058  RH  065%=      5-min Rain = 0
KGO1 091535Z 08014KT 12/06 A3011 RMK A01 T01200058  RH  066%=      5-min Rain = 0
KGO1 091536Z 08011KT 12/06 A3011 RMK A01 T01190059  RH  066%=      5-min Rain = 0
KGO1 091537Z 07012KT 12/06 A3011 RMK A01 T01210059  RH  066%=      5-min Rain = 0
KGO1 091538Z 07013G18KT 12/06 A3011 RMK A01 T01210061  RH  067%=      5-min Rain = 0
KGO1 091539Z 06014KT 12/06 A3011 RMK A01 T01220060  RH  066%=      5-min Rain = 0
KGO1 091540Z 06011KT 12/06 A3011 RMK A01 T01230061  RH  066%=      5-min Rain = 0
KGO1 091541Z 06014KT 12/06 A3011 RMK A01 T01230061  RH  066%=      5-min Rain = 0
KGO1 091542Z 06014KT 12/06 A3011 RMK A01 T01230060  RH  065%=      5-min Rain = 0
KGO1 091543Z 06017KT 12/06 A3011 RMK A01 T01230060  RH  065%=      5-min Rain = 0
KGO1 091544Z 06014KT 12/06 A3011 RMK A01 T01220059  RH  065%=      5-min Rain = 0
KGO1 091545Z 06014KT 12/06 A3011 RMK A01 T01220061  RH  066%=      5-min Rain = 0
KGO1 091546Z 07013KT 13/06 A3011 RMK A01 T01250063  RH  066%=      5-min Rain = 0
KGO1 091547Z 06014KT 13/06 A3011 RMK A01 T01260061  RH  064%=      5-min Rain = 0
KGO1 091548Z 08012KT 13/06 A3011 RMK A01 T01260062  RH  065%=      5-min Rain = 0
KGO1 091549Z 07013KT 13/06 A3011 RMK A01 T01260061  RH  065%=      5-min Rain = 0
KGO1 091550Z 07010KT 13/06 A301 RMK A01 T01260061  RH  065%=      5-min Rain = 0
KGO1 091551Z 06014KT 13/06 A301 RMK A01 T01270064  RH  065%=      5-min Rain = 0
KGO1 091552Z 06014KT 13/06 A3011 RMK A01 T01280062  RH  064%=      5-min Rain = 0
KGO1 091553Z 06012KT 13/06 A301 RMK A01 T01250060  RH  065%=      5-min Rain = 0
KGO1 091554Z 07013KT 13/06 A3011 RMK A01 T01250061  RH  065%=      5-min Rain = 0
KGO1 091555Z 07014KT 13/06 A3011 RMK A01 T01270061  RH  064%=      5-min Rain = 0
KGO1 091556Z 07014KT 13/06 A3011 RMK A01 T01260060  RH  064%=      5-min Rain = 0
KGO1 091557Z 06015KT 13/06 A3011 RMK A01 T01250060  RH  064%=      5-min Rain = 0
KGO1 091558Z 07014KT 13/06 A3011 RMK A01 T01250062  RH  065%=      5-min Rain = 0
KGO1 091559Z 07011KT 13/06 A3011 RMK A01 T01270062  RH  065%=      5-min Rain = 0
KGO1 091600Z 09013KT 13/06 A3011 RMK A01 T01280063  RH  064%=      5-min Rain = 0
KGO1 091601Z 08012KT 13/06 A3011 RMK A01 T01290061  RH  063%=      5-min Rain = 0
KGO1 091602Z 08011KT 13/06 A3011 RMK A01 T01270060  RH  064%=      5-min Rain = 0
KGO1 091603Z 08012G17KT 13/06 A3011 RMK A01 T01270062  RH  065%=      5-min Rain = 0
KGO1 091604Z 07012KT 13/06 A3011 RMK A01 T01270061  RH  064%=      5-min Rain = 0
KGO1 091605Z 07014KT 13/06 A3011 RMK A01 T01280061  RH  064%=      5-min Rain = 0
KGO1 091606Z 06013G20KT 13/06 A3011 RMK A01 T01270061  RH  064%=      5-min Rain = 0
KGO1 091607Z 07014G19KT 13/06 A3011 RMK A01 T01280062  RH  064%=      5-min Rain = 0
KGO1 091608Z 08012KT 13/06 A3011 RMK A01 T01270060  RH  064%=      5-min Rain = 0
KGO1 091609Z 06013G18KT 13/06 A3011 RMK A01 T01260061  RH  064%=      5-min Rain = 0
KGO1 091610Z 08016KT 13/06 A3011 RMK A01 T01260060  RH  064%=      5-min Rain = 0
KGO1 091611Z 07014KT 13/06 A3011 RMK A01 T01260059  RH  064%=      5-min Rain = 0
KGO1 091612Z 06013KT 13/06 A3011 RMK A01 T01250059  RH  064%=      5-min Rain = 0
KGO1 091613Z 06012KT 12/06 A3011 RMK A01 T01240060  RH  065%=      5-min Rain = 0
KGO1 091614Z 07013KT 13/06 A3011 RMK A01 T01260062  RH  065%=      5-min Rain = 0
KGO1 091615Z 08012KT 13/06 A3011 RMK A01 T01270061  RH  064%=      5-min Rain = 0
KGO1 091616Z 07014KT 13/06 A3011 RMK A01 T01270060  RH  064%=      5-min Rain = 0
KGO1 091617Z 07014KT 13/06 A3011 RMK A01 T01270060  RH  064%=      5-min Rain = 0
KGO1 091618Z 07012G17KT 13/06 A3011 RMK A01 T01270063  RH  065%=      5-min Rain = 0
KGO1 091619Z 07012KT 13/06 A3011 RMK A01 T01300063  RH  064%=      5-min Rain = 0
KGO1 091620Z 07013KT 13/06 A3011 RMK A01 T01300060  RH  063%=      5-min Rain = 0
KGO1 091621Z 08014G19KT 13/06 A3011 RMK A01 T01300062  RH  064%=      5-min Rain = 0
KGO1 091622Z 08013KT 13/06 A3011 RMK A01 T01300060  RH  062%=      5-min Rain = 0
KGO1 091623Z 07011KT 13/06 A3011 RMK A01 T01300062  RH  063%=      5-min Rain = 0
KGO1 091624Z 08011KT 13/06 A3011 RMK A01 T01300061  RH  063%=      5-min Rain = 0
KGO1 091625Z 08015KT 13/06 A3011 RMK A01 T01300062  RH  063%=      5-min Rain = 0
KGO1 091626Z 07010KT 13/06 A3011 RMK A01 T01310062  RH  063%=      5-min Rain = 0
KGO1 091627Z 07012KT 13/07 A3011 RMK A01 T01330065  RH  063%=      5-min Rain = 0
KGO1 091628Z 07014KT 13/06 A3011 RMK A01 T01340064  RH  062%=      5-min Rain = 0
KGO1 091629Z 08014KT 13/06 A3011 RMK A01 T01340064  RH  062%=      5-min Rain = 0
KGO1 091630Z 08013KT 13/06 A3011 RMK A01 T01340062  RH  062%=      5-min Rain = 0
KGO1 091631Z 09012KT 13/06 A3011 RMK A01 T01320063  RH  063%=      5-min Rain = 0
KGO1 091632Z 08010KT 14/07 A3011 RMK A01 T01350067  RH  063%=      5-min Rain = 0
KGO1 091633Z 08011KT 14/07 A3011 RMK A01 T01380067  RH  062%=      5-min Rain = 0
KGO1 091634Z 07012KT 14/07 A301 RMK A01 T01400069  RH  062%=      5-min Rain = 0
KGO1 091635Z 08013KT 14/07 A3011 RMK A01 T01420065  RH  060%=      5-min Rain = 0
KGO1 091636Z 09015KT 14/06 A3011 RMK A01 T01390064  RH  061%=      5-min Rain = 0
KGO1 091637Z 09014KT 14/06 A3011 RMK A01 T01370063  RH  061%=      5-min Rain = 0
KGO1 091638Z 09014KT 14/06 A3011 RMK A01 T01360064  RH  061%=      5-min Rain = 0
KGO1 091639Z 09014G20KT 14/06 A3011 RMK A01 T01360064  RH  062%=      5-min Rain = 0
KGO1 091640Z 08013KT 14/06 A3011 RMK A01 T01370064  RH  061%=      5-min Rain = 0
KGO1 091641Z 08013KT 14/06 A3011 RMK A01 T01370064  RH  061%=      5-min Rain = 0
KGO1 091642Z 09013KT 14/06 A3011 RMK A01 T01370064  RH  061%=      5-min Rain = 0
KGO1 091643Z 09015KT 14/06 A3011 RMK A01 T01370063  RH  061%=      5-min Rain = 0
KGO1 091644Z 08012G17KT 14/06 A3011 RMK A01 T01370063  RH  061%=      5-min Rain = 0
KGO1 091645Z 09012KT 14/07 A3011 RMK A01 T01370065  RH  062%=      5-min Rain = 0
KGO1 091646Z 07013KT 14/06 A3011 RMK A01 T01370063  RH  061%=      5-min Rain = 0
KGO1 091647Z 07013KT 14/06 A3011 RMK A01 T01370064  RH  061%=      5-min Rain = 0
KGO1 091648Z 07013KT 14/06 A3011 RMK A01 T01360062  RH  061%=      5-min Rain = 0
KGO1 091649Z 07011G17KT 14/06 A3011 RMK A01 T01350062  RH  061%=      5-min Rain = 0
KGO1 091650Z 07012KT 14/06 A3011 RMK A01 T01350063  RH  062%=      5-min Rain = 0
KGO1 091651Z 07011KT 14/06 A3011 RMK A01 T01360063  RH  061%=      5-min Rain = 0
KGO1 091652Z 07015KT 14/06 A3011 RMK A01 T01370064  RH  061%=      5-min Rain = 0
KGO1 091653Z 07014KT 14/06 A3012 RMK A01 T01370062  RH  061%=      5-min Rain = 0
KGO1 091654Z 08013KT 14/06 A3012 RMK A01 T01370063  RH  061%=      5-min Rain = 0
KGO1 091655Z 08011KT 14/06 A3012 RMK A01 T01370063  RH  061%=      5-min Rain = 0
KGO1 091656Z 08013KT 14/06 A3012 RMK A01 T01370063  RH  061%=      5-min Rain = 0
KGO1 091657Z 08012KT 14/06 A3012 RMK A01 T01380064  RH  061%=      5-min Rain = 0
KGO1 091658Z 09011KT 14/07 A3012 RMK A01 T01400066  RH  061%=      5-min Rain = 0
KGO1 091659Z 08011G16KT 14/07 A3011 RMK A01 T01430069  RH  061%=      5-min Rain = 0
KGO1 091700Z 06014KT 14/07 A3012 RMK A01 T01440065  RH  059%=      5-min Rain = 0
KGO1 091701Z 06012KT 14/07 A3011 RMK A01 T01420065  RH  060%=      5-min Rain = 0
KGO1 091702Z 09011KT 14/07 A3011 RMK A01 T01410065  RH  060%=      5-min Rain = 0
KGO1 091703Z 07012KT 14/07 A3011 RMK A01 T01420065  RH  060%=      5-min Rain = 0
KGO1 091704Z 06015KT 14/07 A3011 RMK A01 T01420066  RH  060%=      5-min Rain = 0
KGO1 091705Z 06013KT 14/06 A3011 RMK A01 T01430064  RH  059%=      5-min Rain = 0
KGO1 091706Z 07013KT 14/06 A3011 RMK A01 T01420063  RH  059%=      5-min Rain = 0
KGO1 091707Z 06013KT 14/07 A3011 RMK A01 T01410066  RH  060%=      5-min Rain = 0
KGO1 091708Z 07011G17KT 14/07 A3011 RMK A01 T01430067  RH  060%=      5-min Rain = 0
KGO1 091709Z 09015KT 15/07 A3011 RMK A01 T01460068  RH  059%=      5-min Rain = 0
KGO1 091710Z 09012KT 15/07 A3011 RMK A01 T01460066  RH  059%=      5-min Rain = 0
KGO1 091711Z 09012KT 15/07 A3011 RMK A01 T01460068  RH  059%=      5-min Rain = 0
KGO1 091712Z 08013KT 15/07 A3011 RMK A01 T01490069  RH  059%=      5-min Rain = 0
KGO1 091713Z 08014KT 15/07 A3011 RMK A01 T01490066  RH  058%=      5-min Rain = 0
KGO1 091714Z 07014KT 15/06 A3011 RMK A01 T01470064  RH  058%=      5-min Rain = 0
KGO1 091715Z 07011KT 14/07 A3011 RMK A01 T01440067  RH  060%=      5-min Rain = 0
KGO1 091716Z 07011KT 14/06 A3011 RMK A01 T01440064  RH  059%=      5-min Rain = 0
KGO1 091717Z 06012G17KT 14/07 A3011 RMK A01 T01440066  RH  060%=      5-min Rain = 0
KGO1 091718Z 07013KT 15/06 A3011 RMK A01 T01450064  RH  058%=      5-min Rain = 0
KGO1 091719Z 06014KT 15/06 A3011 RMK A01 T01450064  RH  058%=      5-min Rain = 0
KGO1 091720Z 06015KT 15/07 A3011 RMK A01 T01450066  RH  059%=      5-min Rain = 0
KGO1 091721Z 07012KT 15/07 A3011 RMK A01 T01470066  RH  058%=      5-min Rain = 0
KGO1 091722Z 07011KT 15/07 A3011 RMK A01 T01480066  RH  058%=      5-min Rain = 0
KGO1 091723Z 06011KT 15/07 A3011 RMK A01 T01480067  RH  058%=      5-min Rain = 0
KGO1 091724Z 09013KT 15/07 A3011 RMK A01 T01480069  RH  059%=      5-min Rain = 0
KGO1 091725Z 08011KT 15/07 A3011 RMK A01 T01490066  RH  058%=      5-min Rain = 0
KGO1 091726Z 08011KT 15/07 A3011 RMK A01 T01480066  RH  058%=      5-min Rain = 0
KGO1 091727Z 06010KT 15/07 A301 RMK A01 T01480067  RH  058%=      5-min Rain = 0
KGO1 091728Z 08012KT 15/07 A301 RMK A01 T01490069  RH  058%=      5-min Rain = 0
KGO1 091729Z 08010KT 15/07 A301 RMK A01 T01500068  RH  058%=      5-min Rain = 0
KGO1 091730Z 08012KT 15/07 A301 RMK A01 T01510068  RH  058%=      5-min Rain = 0
KGO1 091731Z 09011KT 15/07 A301 RMK A01 T01510069  RH  058%=      5-min Rain = 0
KGO1 091732Z 10012KT 15/07 A301 RMK A01 T01520070  RH  058%=      5-min Rain = 0
KGO1 091733Z 07010KT 16/07 A301 RMK A01 T01550072  RH  058%=      5-min Rain = 0
KGO1 091734Z 08012KT 16/07 A301 RMK A01 T01560067  RH  055%=      5-min Rain = 0
KGO1 091735Z 09014KT 15/07 A301 RMK A01 T01530067  RH  056%=      5-min Rain = 0
KGO1 091736Z 07013KT 15/07 A301 RMK A01 T01520067  RH  057%=      5-min Rain = 0
KGO1 091737Z 06012KT 15/07 A301 RMK A01 T01520065  RH  056%=      5-min Rain = 0
KGO1 091738Z 07010KT 15/07 A301 RMK A01 T01510070  RH  058%=      5-min Rain = 0
KGO1 091739Z 07010KT 15/07 A301 RMK A01 T01530069  RH  057%=      5-min Rain = 0
KGO1 091740Z 07011G16KT 15/07 A301 RMK A01 T01540070  RH  057%=      5-min Rain = 0
KGO1 091741Z 09012KT 16/07 A301 RMK A01 T01550067  RH  056%=      5-min Rain = 0
KGO1 091742Z 09015KT 16/07 A301 RMK A01 T01550068  RH  056%=      5-min Rain = 0
KGO1 091743Z 09012KT 16/07 A301 RMK A01 T01560067  RH  055%=      5-min Rain = 0
KGO1 091744Z 09014KT 16/07 A301 RMK A01 T01560072  RH  057%=      5-min Rain = 0
KGO1 091745Z 08013G18KT 16/07 A301 RMK A01 T01570068  RH  055%=      5-min Rain = 0
KGO1 091746Z 08011KT 16/07 A301 RMK A01 T01560072  RH  057%=      5-min Rain = 0
KGO1 091747Z 08011KT 16/07 A301 RMK A01 T01570070  RH  056%=      5-min Rain = 0
KGO1 091748Z 08012KT 16/07 A301 RMK A01 T01590071  RH  056%=      5-min Rain = 0
KGO1 091749Z 09010KT 16/07 A301 RMK A01 T01590071  RH  056%=      5-min Rain = 0
KGO1 091750Z 08010G15KT 16/07 A301 RMK A01 T01590070  RH  055%=      5-min Rain = 0
KGO1 091751Z 07013G18KT 16/07 A301 RMK A01 T01600071  RH  055%=      5-min Rain = 0
KGO1 091752Z 08011KT 16/07 A301 RMK A01 T01590069  RH  055%=      5-min Rain = 0
KGO1 091753Z 07010G17KT 16/07 A301 RMK A01 T01590071  RH  056%=      5-min Rain = 0
KGO1 091754Z 08013KT 16/07 A301 RMK A01 T01610071  RH  055%=      5-min Rain = 0
KGO1 091755Z 09012KT 16/07 A301 RMK A01 T01610070  RH  055%=      5-min Rain = 0
KGO1 091756Z 08012G17KT 16/07 A301 RMK A01 T01600069  RH  055%=      5-min Rain = 0
KGO1 091757Z 08013KT 16/07 A301 RMK A01 T01610070  RH  055%=      5-min Rain = 0
KGO1 091758Z 09012KT 16/07 A301 RMK A01 T01630068  RH  053%=      5-min Rain = 0
KGO1 091759Z 09012KT 16/07 A301 RMK A01 T01620070  RH  054%=      5-min Rain = 0
KGO1 091800Z 09012KT 16/07 A301 RMK A01 T01630070  RH  054%=      5-min Rain = 0
KGO1 091801Z 10015KT 16/07 A301 RMK A01 T01640069  RH  053%=      5-min Rain = 0
KGO1 091802Z 09013KT 16/07 A301 RMK A01 T01620068  RH  054%=      5-min Rain = 0
KGO1 091803Z 07011G16KT 16/07 A301 RMK A01 T01610065  RH  053%=      5-min Rain = 0
KGO1 091804Z 08009KT 16/07 A301 RMK A01 T01600066  RH  053%=      5-min Rain = 0
KGO1 091805Z 08009KT 16/06 A301 RMK A01 T01600064  RH  053%=      5-min Rain = 0
KGO1 091806Z 08011KT 16/07 A301 RMK A01 T01590067  RH  054%=      5-min Rain = 0
KGO1 091807Z 09011KT 16/07 A301 RMK A01 T01590066  RH  054%=      5-min Rain = 0
KGO1 091808Z 06010KT 16/07 A301 RMK A01 T01590070  RH  056%=      5-min Rain = 0
KGO1 091809Z 08012KT 16/07 A301 RMK A01 T01610072  RH  055%=      5-min Rain = 0
KGO1 091810Z 08011KT 16/07 A301 RMK A01 T01630067  RH  053%=      5-min Rain = 0
KGO1 091811Z 08012KT 16/07 A3009 RMK A01 T01600066  RH  054%=      5-min Rain = 0
KGO1 091812Z 10011KT 16/07 A301 RMK A01 T01600070  RH  055%=      5-min Rain = 0
KGO1 091813Z 10010KT 16/07 A3009 RMK A01 T01610068  RH  054%=      5-min Rain = 0
KGO1 091814Z 09012KT 16/07 A3009 RMK A01 T01610071  RH  055%=      5-min Rain = 0
KGO1 091815Z 10007KT 16/07 A3009 RMK A01 T01600066  RH  053%=      5-min Rain = 0
KGO1 091816Z 09008KT 16/07 A3009 RMK A01 T01590071  RH  056%=      5-min Rain = 0
KGO1 091817Z 09009KT 16/07 A3009 RMK A01 T01600068  RH  054%=      5-min Rain = 0
KGO1 091818Z 08011KT 16/07 A3009 RMK A01 T01600068  RH  054%=      5-min Rain = 0
KGO1 091819Z 07010KT 16/07 A3009 RMK A01 T01610068  RH  054%=      5-min Rain = 0
KGO1 091820Z 08013KT 16/07 A3009 RMK A01 T01610068  RH  054%=      5-min Rain = 0
KGO1 091821Z 08012KT 16/07 A3009 RMK A01 T01610066  RH  053%=      5-min Rain = 0
KGO1 091822Z 09011KT 16/07 A3009 RMK A01 T01600066  RH  054%=      5-min Rain = 0
KGO1 091823Z 10011KT 16/07 A3009 RMK A01 T01590065  RH  054%=      5-min Rain = 0
KGO1 091824Z 10012KT 16/07 A3009 RMK A01 T01600067  RH  054%=      5-min Rain = 0
KGO1 091825Z 10010KT 16/07 A3009 RMK A01 T01610069  RH  054%=      5-min Rain = 0
KGO1 091826Z 10012KT 16/07 A3009 RMK A01 T01630067  RH  053%=      5-min Rain = 0
KGO1 091827Z 11012KT 16/07 A3009 RMK A01 T01640066  RH  052%=      5-min Rain = 0
KGO1 091828Z 11012KT 17/07 A3009 RMK A01 T01650068  RH  053%=      5-min Rain = 0
KGO1 091829Z 09010KT 17/07 A3009 RMK A01 T01650067  RH  052%=      5-min Rain = 0
KGO1 091830Z 09011KT 16/07 A3009 RMK A01 T01640065  RH  052%=      5-min Rain = 0
KGO1 091831Z 08010KT 16/07 A3009 RMK A01 T01640068  RH  053%=      5-min Rain = 0
KGO1 091832Z 10009KT 17/07 A3009 RMK A01 T01680072  RH  053%=      5-min Rain = 0
KGO1 091833Z 10011KT 17/07 A3009 RMK A01 T01690066  RH  051%=      5-min Rain = 0
KGO1 091834Z 09010KT 17/07 A3009 RMK A01 T01690070  RH  052%=      5-min Rain = 0
KGO1 091835Z 09011KT 17/07 A3009 RMK A01 T01690069  RH  052%=      5-min Rain = 0
KGO1 091836Z 09011KT 17/07 A3009 RMK A01 T01670066  RH  051%=      5-min Rain = 0
KGO1 091837Z 09012KT 17/07 A3009 RMK A01 T01660068  RH  052%=      5-min Rain = 0
KGO1 091838Z 09011KT 17/07 A3009 RMK A01 T01670066  RH  051%=      5-min Rain = 0
KGO1 091839Z 11011KT 17/07 A3009 RMK A01 T01670066  RH  051%=      5-min Rain = 0
KGO1 091840Z 10015KT 17/07 A3009 RMK A01 T01670068  RH  052%=      5-min Rain = 0
KGO1 091841Z 10012KT 17/06 A3009 RMK A01 T01670063  RH  050%=      5-min Rain = 0
KGO1 091842Z 10011KT 17/07 A3009 RMK A01 T01670066  RH  051%=      5-min Rain = 0
KGO1 091843Z 10014KT 17/07 A3009 RMK A01 T01680066  RH  051%=      5-min Rain = 0
KGO1 091844Z 11012KT 17/07 A3009 RMK A01 T01670066  RH  051%=      5-min Rain = 0
KGO1 091845Z 11013KT 17/07 A3009 RMK A01 T01670068  RH  052%=      5-min Rain = 0
KGO1 091846Z 10014KT 17/07 A3009 RMK A01 T01680066  RH  051%=      5-min Rain = 0
KGO1 091847Z 09014KT 17/07 A3009 RMK A01 T01680066  RH  051%=      5-min Rain = 0
KGO1 091848Z 09012KT 17/07 A3009 RMK A01 T01670065  RH  051%=      5-min Rain = 0
KGO1 091849Z 09012KT 17/07 A3009 RMK A01 T01670067  RH  052%=      5-min Rain = 0
KGO1 091850Z 10012KT 17/06 A3009 RMK A01 T01670064  RH  051%=      5-min Rain = 0
KGO1 091851Z 11010KT 17/07 A3009 RMK A01 T01680066  RH  051%=      5-min Rain = 0
KGO1 091852Z 11012KT 17/07 A3009 RMK A01 T01700067  RH  051%=      5-min Rain = 0
KGO1 091853Z 11016KT 17/07 A3009 RMK A01 T01710067  RH  050%=      5-min Rain = 0
KGO1 091854Z 10013KT 17/06 A3009 RMK A01 T01700063  RH  049%=      5-min Rain = 0
KGO1 091855Z 09013KT 17/06 A3009 RMK A01 T01680061  RH  049%=      5-min Rain = 0
KGO1 091856Z 10011KT 17/06 A3009 RMK A01 T01660061  RH  050%=      5-min Rain = 0
KGO1 091857Z 11010KT 17/06 A3009 RMK A01 T01650062  RH  050%=      5-min Rain = 0
KGO1 091858Z 11012KT 16/06 A3009 RMK A01 T01640063  RH  051%=      5-min Rain = 0
KGO1 091859Z 09012KT 16/06 A3009 RMK A01 T01640063  RH  051%=      5-min Rain = 0
KGO1 091900Z 10012KT 16/06 A3009 RMK A01 T01640062  RH  051%=      5-min Rain = 0
KGO1 091901Z 10011KT 16/06 A3009 RMK A01 T01640064  RH  052%=      5-min Rain = 0
KGO1 091902Z 10013KT 17/07 A3009 RMK A01 T01650066  RH  052%=      5-min Rain = 0
KGO1 091903Z 10015KT 17/06 A3009 RMK A01 T01660064  RH  051%=      5-min Rain = 0
KGO1 091904Z 10011KT 17/06 A3009 RMK A01 T01650063  RH  051%=      5-min Rain = 0
KGO1 091905Z 10010KT 16/07 A3009 RMK A01 T01640065  RH  052%=      5-min Rain = 0
KGO1 091906Z 10010KT 16/06 A3008 RMK A01 T01640064  RH  051%=      5-min Rain = 0
KGO1 091907Z 10010G15KT 17/06 A3008 RMK A01 T01650064  RH  051%=      5-min Rain = 0
KGO1 091908Z 08011KT 17/07 A3008 RMK A01 T01660065  RH  051%=      5-min Rain = 0
KGO1 091909Z 07012KT 17/06 A3008 RMK A01 T01670063  RH  050%=      5-min Rain = 0
KGO1 091910Z 07012KT 17/06 A3008 RMK A01 T01660060  RH  049%=      5-min Rain = 0
KGO1 091911Z 08010KT 17/06 A3008 RMK A01 T01650063  RH  051%=      5-min Rain = 0
KGO1 091912Z 08011KT 17/06 A3008 RMK A01 T01660063  RH  050%=      5-min Rain = 0
KGO1 091913Z 09014KT 17/06 A3008 RMK A01 T01670060  RH  049%=      5-min Rain = 0
KGO1 091914Z 11012KT 17/06 A3008 RMK A01 T01670062  RH  050%=      5-min Rain = 0
KGO1 091915Z 10010KT 17/07 A3008 RMK A01 T01680065  RH  051%=      5-min Rain = 0
KGO1 091916Z 09008KT 17/07 A3008 RMK A01 T01680065  RH  051%=      5-min Rain = 0
KGO1 091917Z 08007KT 17/07 A3008 RMK A01 T01690068  RH  051%=      5-min Rain = 0
KGO1 091918Z 09010KT 17/07 A3008 RMK A01 T01700067  RH  051%=      5-min Rain = 0
KGO1 091919Z 09010KT 17/06 A3008 RMK A01 T01700064  RH  049%=      5-min Rain = 0
KGO1 091920Z 09013KT 17/06 A3009 RMK A01 T01700063  RH  049%=      5-min Rain = 0
KGO1 091921Z 09011KT 17/06 A3009 RMK A01 T01680061  RH  049%=      5-min Rain = 0
KGO1 091922Z 09007KT 17/06 A3009 RMK A01 T01660059  RH  049%=      5-min Rain = 0
KGO1 091923Z 10008KT 17/07 A3009 RMK A01 T01660066  RH  052%=      5-min Rain = 0
KGO1 091924Z 09009KT 17/06 A3009 RMK A01 T01680063  RH  050%=      5-min Rain = 0
KGO1 091925Z 10013KT 17/06 A3009 RMK A01 T01690063  RH  050%=      5-min Rain = 0
KGO1 091926Z 10012G17KT 17/06 A3009 RMK A01 T01690062  RH  049%=      5-min Rain = 0
KGO1 091927Z 10012KT 17/06 A3009 RMK A01 T01680061  RH  049%=      5-min Rain = 0
KGO1 091928Z 11011KT 17/06 A3009 RMK A01 T01670060  RH  049%=      5-min Rain = 0
KGO1 091929Z 11012KT 17/06 A3009 RMK A01 T01670063  RH  050%=      5-min Rain = 0
KGO1 091930Z 09009KT 17/06 A3009 RMK A01 T01680060  RH  049%=      5-min Rain = 0
KGO1 091931Z 09009KT 17/06 A3009 RMK A01 T01680060  RH  049%=      5-min Rain = 0
KGO1 091932Z 10010KT 17/06 A3009 RMK A01 T01670061  RH  049%=      5-min Rain = 0
KGO1 091933Z 08010KT 17/06 A3009 RMK A01 T01670064  RH  051%=      5-min Rain = 0
KGO1 091934Z 08010KT 17/06 A3009 RMK A01 T01670061  RH  049%=      5-min Rain = 0
KGO1 091935Z 08010KT 17/06 A3009 RMK A01 T01660060  RH  049%=      5-min Rain = 0
KGO1 091936Z 08010KT 17/06 A3009 RMK A01 T01660060  RH  050%=      5-min Rain = 0
KGO1 091937Z 09011KT 17/06 A3009 RMK A01 T01650059  RH  050%=      5-min Rain = 0
KGO1 091938Z 08010KT 16/06 A3009 RMK A01 T01640057  RH  049%=      5-min Rain = 0
KGO1 091939Z 07009KT 16/06 A3009 RMK A01 T01630058  RH  050%=      5-min Rain = 0
KGO1 091940Z 07008KT 16/06 A3009 RMK A01 T01630058  RH  049%=      5-min Rain = 0
KGO1 091941Z 09005KT 16/06 A3009 RMK A01 T01630062  RH  051%=      5-min Rain = 0
KGO1 091942Z 10008KT 17/07 A3009 RMK A01 T01660068  RH  052%=      5-min Rain = 0
KGO1 091943Z 09010KT 17/07 A3009 RMK A01 T01690065  RH  050%=      5-min Rain = 0
KGO1 091944Z 09010KT 17/06 A3009 RMK A01 T01700063  RH  049%=      5-min Rain = 0
KGO1 091945Z 08011KT 17/06 A3009 RMK A01 T01690061  RH  049%=      5-min Rain = 0
KGO1 091946Z 10009KT 17/06 A3009 RMK A01 T01670060  RH  049%=      5-min Rain = 0
KGO1 091947Z 09008G13KT 17/06 A3009 RMK A01 T01660062  RH  050%=      5-min Rain = 0
KGO1 091948Z 09007KT 17/06 A3009 RMK A01 T01670062  RH  050%=      5-min Rain = 0
KGO1 091949Z 08010KT 17/06 A3009 RMK A01 T01670062  RH  050%=      5-min Rain = 0
KGO1 091950Z 09009KT 17/06 A3009 RMK A01 T01670062  RH  050%=      5-min Rain = 0
KGO1 091951Z 09011KT 17/06 A3009 RMK A01 T01670059  RH  049%=      5-min Rain = 0
KGO1 091952Z 09010KT 17/06 A3009 RMK A01 T01670060  RH  049%=      5-min Rain = 0
KGO1 091953Z 09009KT 17/06 A3009 RMK A01 T01670060  RH  049%=      5-min Rain = 0
KGO1 091954Z 09008KT 17/06 A3009 RMK A01 T01660060  RH  049%=      5-min Rain = 0
KGO1 091955Z 09011KT 17/06 A3009 RMK A01 T01660059  RH  049%=      5-min Rain = 0
KGO1 091956Z 10010KT 17/06 A3009 RMK A01 T01660059  RH  049%=      5-min Rain = 0
KGO1 091957Z 09010KT 17/06 A3008 RMK A01 T01670058  RH  048%=      5-min Rain = 0
KGO1 091958Z 11011KT 17/06 A3008 RMK A01 T01670060  RH  049%=      5-min Rain = 0
KGO1 091959Z 10012KT 17/06 A3008 RMK A01 T01670059  RH  049%=      5-min Rain = 0
KGO1 092000Z 11012KT 17/06 A3008 RMK A01 T01670058  RH  048%=      5-min Rain = 0
KGO1 092001Z 09009KT 17/06 A3008 RMK A01 T01650056  RH  048%=      5-min Rain = 0
KGO1 092002Z 10008KT 16/06 A3008 RMK A01 T01640057  RH  049%=      5-min Rain = 0
KGO1 092003Z 11008KT 16/06 A3008 RMK A01 T01640056  RH  049%=      5-min Rain = 0
KGO1 092004Z 11009KT 16/06 A3008 RMK A01 T01640058  RH  049%=      5-min Rain = 0
KGO1 092005Z 11008KT 16/06 A3008 RMK A01 T01640057  RH  049%=      5-min Rain = 0
KGO1 092006Z 11009KT 16/06 A3008 RMK A01 T01640059  RH  050%=      5-min Rain = 0
KGO1 092007Z 11009KT 17/06 A3008 RMK A01 T01650059  RH  050%=      5-min Rain = 0
KGO1 092008Z 10010KT 16/06 A3008 RMK A01 T01640056  RH  049%=      5-min Rain = 0
KGO1 092009Z 09014KT 16/06 A3008 RMK A01 T01640056  RH  049%=      5-min Rain = 0
KGO1 092010Z 09012KT 16/05 A3008 RMK A01 T01640053  RH  048%=      5-min Rain = 0
KGO1 092011Z 09011KT 16/05 A3008 RMK A01 T01630052  RH  048%=      5-min Rain = 0
KGO1 092012Z 09013KT 16/05 A3008 RMK A01 T01620052  RH  048%=      5-min Rain = 0
KGO1 092013Z 08010KT 16/05 A3008 RMK A01 T01620048  RH  047%=      5-min Rain = 0
KGO1 092014Z 10010KT 16/05 A3008 RMK A01 T01620051  RH  048%=      5-min Rain = 0
KGO1 092015Z 10010KT 16/05 A3008 RMK A01 T01620051  RH  048%=      5-min Rain = 0
KGO1 092016Z 10010KT 16/06 A3008 RMK A01 T01630056  RH  049%=      5-min Rain = 0
KGO1 092017Z 09010KT 16/06 A3008 RMK A01 T01640055  RH  048%=      5-min Rain = 0
KGO1 092018Z 09009KT 17/05 A3008 RMK A01 T01650053  RH  047%=      5-min Rain = 0
KGO1 092019Z 10011KT 17/05 A3008 RMK A01 T01650053  RH  048%=      5-min Rain = 0
KGO1 092020Z 10011KT 17/05 A3008 RMK A01 T01650050  RH  046%=      5-min Rain = 0
KGO1 092021Z 10009KT 16/05 A3008 RMK A01 T01640052  RH  047%=      5-min Rain = 0
KGO1 092022Z 10012KT 16/05 A3008 RMK A01 T01640052  RH  047%=      5-min Rain = 0
KGO1 092023Z 09014KT 17/05 A3007 RMK A01 T01650049  RH  046%=      5-min Rain = 0
KGO1 092024Z 09013KT 17/05 A3007 RMK A01 T01650049  RH  046%=      5-min Rain = 0
KGO1 092025Z 09012KT 16/05 A3007 RMK A01 T01640047  RH  046%=      5-min Rain = 0
KGO1 092026Z 09011KT 16/05 A3007 RMK A01 T01640050  RH  047%=      5-min Rain = 0
KGO1 092027Z 10015KT 16/05 A3007 RMK A01 T01640050  RH  047%=      5-min Rain = 0
KGO1 092028Z 09011KT 17/05 A3007 RMK A01 T01650051  RH  047%=      5-min Rain = 0
KGO1 092029Z 09010KT 17/05 A3007 RMK A01 T01650053  RH  047%=      5-min Rain = 0
KGO1 092030Z 09011KT 17/05 A3007 RMK A01 T01650046  RH  045%=      5-min Rain = 0
KGO1 092031Z 09009KT 16/05 A3007 RMK A01 T01640050  RH  047%=      5-min Rain = 0
KGO1 092032Z 10010KT 17/05 A3007 RMK A01 T01650050  RH  047%=      5-min Rain = 0
KGO1 092033Z 10012KT 17/05 A3006 RMK A01 T01660052  RH  047%=      5-min Rain = 0
KGO1 092034Z 10013KT 17/05 A3006 RMK A01 T01670049  RH  046%=      5-min Rain = 0
KGO1 092035Z 11013KT 17/05 A3006 RMK A01 T01660050  RH  046%=      5-min Rain = 0
KGO1 092036Z 11010KT 17/05 A3006 RMK A01 T01660051  RH  047%=      5-min Rain = 0
KGO1 092037Z 11009KT 17/06 A3006 RMK A01 T01670057  RH  048%=      5-min Rain = 0
KGO1 092038Z 10013KT 17/05 A3006 RMK A01 T01680050  RH  045%=      5-min Rain = 0
KGO1 092039Z 09010KT 17/05 A3006 RMK A01 T01680049  RH  045%=      5-min Rain = 0
KGO1 092040Z 10013KT 17/05 A3006 RMK A01 T01670048  RH  045%=      5-min Rain = 0
KGO1 092041Z 10014KT 17/05 A3006 RMK A01 T01680049  RH  045%=      5-min Rain = 0
KGO1 092042Z 10014KT 17/04 A3006 RMK A01 T01670043  RH  044%=      5-min Rain = 0
KGO1 092043Z 10014KT 17/04 A3006 RMK A01 T01650044  RH  044%=      5-min Rain = 0
KGO1 092044Z 10012KT 17/05 A3006 RMK A01 T01660045  RH  045%=      5-min Rain = 0
KGO1 092045Z 09010G15KT 17/05 A3006 RMK A01 T01670046  RH  045%=      5-min Rain = 0
KGO1 092046Z 09012KT 17/04 A3006 RMK A01 T01670043  RH  044%=      5-min Rain = 0
KGO1 092047Z 10013KT 17/05 A3006 RMK A01 T01670045  RH  044%=      5-min Rain = 0
KGO1 092048Z 10013KT 17/04 A3006 RMK A01 T01680042  RH  043%=      5-min Rain = 0
KGO1 092049Z 10010KT 17/04 A3006 RMK A01 T01670043  RH  044%=      5-min Rain = 0
KGO1 092050Z 11012KT 17/05 A3006 RMK A01 T01670045  RH  044%=      5-min Rain = 0
KGO1 092051Z 10011KT 17/05 A3006 RMK A01 T01680049  RH  045%=      5-min Rain = 0
KGO1 092052Z 11012KT 17/04 A3006 RMK A01 T01690043  RH  043%=      5-min Rain = 0
KGO1 092053Z 10011KT 17/05 A3006 RMK A01 T01680045  RH  044%=      5-min Rain = 0
KGO1 092054Z 10011KT 17/04 A3006 RMK A01 T01680044  RH  044%=      5-min Rain = 0
KGO1 092055Z 11012KT 17/04 A3005 RMK A01 T01680040  RH  043%=      5-min Rain = 0
KGO1 092056Z 11009KT 17/04 A3005 RMK A01 T01670044  RH  044%=      5-min Rain = 0
KGO1 092057Z 11011KT 17/04 A3005 RMK A01 T01680044  RH  044%=      5-min Rain = 0
KGO1 092058Z 11010KT 17/05 A3005 RMK A01 T01680045  RH  044%=      5-min Rain = 0
KGO1 092059Z 11013KT 17/05 A3005 RMK A01 T01690045  RH  044%=      5-min Rain = 0
KGO1 092100Z 10013KT 17/04 A3005 RMK A01 T01700042  RH  043%=      5-min Rain = 0
KGO1 092101Z 12011KT 17/04 A3005 RMK A01 T01680039  RH  042%=      5-min Rain = 0
KGO1 092102Z 12011KT 17/04 A3005 RMK A01 T01680043  RH  044%=      5-min Rain = 0
KGO1 092103Z 11012KT 17/04 A3005 RMK A01 T01680043  RH  043%=      5-min Rain = 0
KGO1 092104Z 10014KT 17/04 A3005 RMK A01 T01690038  RH  042%=      5-min Rain = 0
KGO1 092105Z 09013KT 17/04 A3005 RMK A01 T01670036  RH  041%=      5-min Rain = 0
KGO1 092106Z 09013KT 17/04 A3005 RMK A01 T01670036  RH  042%=      5-min Rain = 0
KGO1 092107Z 09012KT 17/04 A3005 RMK A01 T01670037  RH  042%=      5-min Rain = 0
KGO1 092108Z 09011KT 17/04 A3005 RMK A01 T01670039  RH  042%=      5-min Rain = 0
KGO1 092109Z 10013KT 17/04 A3005 RMK A01 T01680041  RH  043%=      5-min Rain = 0
KGO1 092110Z 10011KT 17/04 A3005 RMK A01 T01680036  RH  041%=      5-min Rain = 0
KGO1 092111Z 10011KT 17/04 A3005 RMK A01 T01680041  RH  043%=      5-min Rain = 0
KGO1 092112Z 10011KT 17/04 A3004 RMK A01 T01680040  RH  042%=      5-min Rain = 0
KGO1 092113Z 10008KT 17/04 A3004 RMK A01 T01690043  RH  043%=      5-min Rain = 0
KGO1 092114Z 09010G15KT 17/04 A3004 RMK A01 T01700040  RH  042%=      5-min Rain = 0
KGO1 092115Z 09010KT 17/04 A3004 RMK A01 T01700036  RH  041%=      5-min Rain = 0
KGO1 092116Z 09011KT 17/03 A3004 RMK A01 T01690034  RH  041%=      5-min Rain = 0
KGO1 092117Z 10010KT 17/04 A3005 RMK A01 T01690038  RH  042%=      5-min Rain = 0
KGO1 092118Z 09013KT 17/04 A3005 RMK A01 T01700038  RH  041%=      5-min Rain = 0
KGO1 092119Z 09011KT 17/03 A3005 RMK A01 T01700031  RH  039%=      5-min Rain = 0
KGO1 092120Z 09010KT 17/03 A3005 RMK A01 T01690034  RH  040%=      5-min Rain = 0
KGO1 092121Z 08010KT 17/03 A3005 RMK A01 T01690033  RH  040%=      5-min Rain = 0
KGO1 092122Z 10010KT 17/03 A3005 RMK A01 T01690034  RH  040%=      5-min Rain = 0
KGO1 092123Z 11011KT 17/03 A3005 RMK A01 T01700032  RH  040%=      5-min Rain = 0
KGO1 092124Z 11010KT 17/03 A3005 RMK A01 T01690034  RH  040%=      5-min Rain = 0
KGO1 092125Z 11012KT 17/04 A3004 RMK A01 T01690036  RH  041%=      5-min Rain = 0
KGO1 092126Z 10013KT 17/04 A3004 RMK A01 T01690036  RH  041%=      5-min Rain = 0
KGO1 092127Z 10011KT 17/03 A3004 RMK A01 T01690032  RH  040%=      5-min Rain = 0
KGO1 092128Z 10012KT 17/03 A3005 RMK A01 T01680033  RH  040%=      5-min Rain = 0
KGO1 092129Z 10012KT 17/03 A3005 RMK A01 T01680030  RH  040%=      5-min Rain = 0
KGO1 092130Z 10008KT 17/03 A3005 RMK A01 T01680033  RH  041%=      5-min Rain = 0
KGO1 092131Z 10010KT 17/03 A3004 RMK A01 T01680033  RH  041%=      5-min Rain = 0
KGO1 092132Z 11012KT 17/03 A3004 RMK A01 T01680030  RH  040%=      5-min Rain = 0
KGO1 092133Z 11012KT 17/03 A3004 RMK A01 T01680033  RH  040%=      5-min Rain = 0
KGO1 092134Z 11011KT 17/03 A3004 RMK A01 T01680027  RH  039%=      5-min Rain = 0
KGO1 092135Z 11010KT 17/03 A3004 RMK A01 T01670031  RH  040%=      5-min Rain = 0
KGO1 092136Z 11013KT 17/03 A3004 RMK A01 T01670031  RH  040%=      5-min Rain = 0
KGO1 092137Z 12011KT 17/03 A3004 RMK A01 T01680030  RH  040%=      5-min Rain = 0
KGO1 092138Z 11008KT 17/03 A3004 RMK A01 T01670030  RH  040%=      5-min Rain = 0
KGO1 092139Z 10010KT 17/04 A3004 RMK A01 T01670037  RH  042%=      5-min Rain = 0
KGO1 092140Z 11012KT 17/03 A3004 RMK A01 T01680033  RH  040%=      5-min Rain = 0
KGO1 092141Z 11012KT 17/04 A3004 RMK A01 T01690035  RH  041%=      5-min Rain = 0
KGO1 092142Z 11012KT 17/03 A3004 RMK A01 T01690032  RH  040%=      5-min Rain = 0
KGO1 092143Z 11012KT 17/03 A3004 RMK A01 T01680031  RH  040%=      5-min Rain = 0
KGO1 092144Z 09012KT 17/03 A3004 RMK A01 T01680034  RH  041%=      5-min Rain = 0
KGO1 092145Z 10012KT 17/03 A3004 RMK A01 T01680028  RH  039%=      5-min Rain = 0
KGO1 092146Z 10012KT 17/03 A3004 RMK A01 T01680033  RH  040%=      5-min Rain = 0
KGO1 092147Z 11012G17KT 17/03 A3004 RMK A01 T01680029  RH  039%=      5-min Rain = 0
KGO1 092148Z 11012KT 17/03 A3004 RMK A01 T01680032  RH  040%=      5-min Rain = 0
KGO1 092149Z 10013KT 17/03 A3004 RMK A01 T01670030  RH  040%=      5-min Rain = 0
KGO1 092150Z 10012KT 17/03 A3004 RMK A01 T01660028  RH  039%=      5-min Rain = 0
KGO1 092151Z 09009KT 17/03 A3004 RMK A01 T01660032  RH  041%=      5-min Rain = 0
KGO1 092152Z 09010KT 17/03 A3004 RMK A01 T01660029  RH  040%=      5-min Rain = 0
KGO1 092153Z 08009KT 17/03 A3004 RMK A01 T01660029  RH  040%=      5-min Rain = 0
KGO1 092154Z 08010KT 17/03 A3004 RMK A01 T01660029  RH  040%=      5-min Rain = 0
KGO1 092155Z 07010KT 17/03 A3004 RMK A01 T01660031  RH  040%=      5-min Rain = 0
KGO1 092156Z 08010KT 17/03 A3003 RMK A01 T01650027  RH  040%=      5-min Rain = 0
KGO1 092157Z 08011KT 17/03 A3003 RMK A01 T01650029  RH  040%=      5-min Rain = 0
KGO1 092158Z 08010KT 17/03 A3003 RMK A01 T01650031  RH  041%=      5-min Rain = 0
KGO1 092159Z 09009KT 17/03 A3003 RMK A01 T01660029  RH  040%=      5-min Rain = 0
KGO1 092200Z 10010KT 17/03 A3003 RMK A01 T01660033  RH  041%=      5-min Rain = 0
KGO1 092201Z 11011KT 17/03 A3003 RMK A01 T01670033  RH  041%=      5-min Rain = 0
KGO1 092202Z 11012KT 17/03 A3003 RMK A01 T01680031  RH  040%=      5-min Rain = 0
KGO1 092203Z 10012KT 17/03 A3003 RMK A01 T01680031  RH  040%=      5-min Rain = 0
KGO1 092204Z 09011KT 17/03 A3003 RMK A01 T01680029  RH  040%=      5-min Rain = 0
KGO1 092205Z 10009KT 17/03 A3003 RMK A01 T01680028  RH  039%=      5-min Rain = 0
KGO1 092206Z 09008KT 17/03 A3003 RMK A01 T01680030  RH  040%=      5-min Rain = 0
KGO1 092207Z 09009KT 17/03 A3003 RMK A01 T01690033  RH  040%=      5-min Rain = 0
KGO1 092208Z 10010KT 17/03 A3003 RMK A01 T01700031  RH  039%=      5-min Rain = 0
KGO1 092209Z 10011KT 17/03 A3003 RMK A01 T01700031  RH  040%=      5-min Rain = 0
KGO1 092210Z 11012KT 17/03 A3003 RMK A01 T01700030  RH  039%=      5-min Rain = 0
KGO1 092211Z 10011KT 17/03 A3003 RMK A01 T01680027  RH  039%=      5-min Rain = 0
KGO1 092212Z 09009KT 17/03 A3003 RMK A01 T01670028  RH  039%=      5-min Rain = 0
KGO1 092213Z 10011KT 17/03 A3003 RMK A01 T01670031  RH  040%=      5-min Rain = 0
KGO1 092214Z 11011KT 17/03 A3003 RMK A01 T01680034  RH  041%=      5-min Rain = 0
KGO1 092215Z 11012KT 17/03 A3003 RMK A01 T01680032  RH  040%=      5-min Rain = 0
KGO1 092216Z 11011KT 17/03 A3003 RMK A01 T01680030  RH  040%=      5-min Rain = 0
KGO1 092217Z 12010KT 17/03 A3003 RMK A01 T01670030  RH  040%=      5-min Rain = 0
KGO1 092218Z 12011KT 17/03 A3003 RMK A01 T01670034  RH  041%=      5-min Rain = 0
KGO1 092219Z 12012KT 17/03 A3003 RMK A01 T01670030  RH  040%=      5-min Rain = 0
KGO1 092220Z 11011KT 17/03 A3003 RMK A01 T01670032  RH  040%=      5-min Rain = 0
KGO1 092221Z 10013KT 17/03 A3003 RMK A01 T01670031  RH  040%=      5-min Rain = 0
KGO1 092222Z 10013KT 17/03 A3003 RMK A01 T01660030  RH  040%=      5-min Rain = 0
KGO1 092223Z 09011KT 17/03 A3003 RMK A01 T01660030  RH  040%=      5-min Rain = 0
KGO1 092224Z 08011KT 17/03 A3003 RMK A01 T01660031  RH  040%=      5-min Rain = 0
KGO1 092225Z 08011KT 17/03 A3003 RMK A01 T01660030  RH  040%=      5-min Rain = 0
KGO1 092226Z 08010KT 17/03 A3003 RMK A01 T01660029  RH  040%=      5-min Rain = 0
KGO1 092227Z 09010KT 17/03 A3003 RMK A01 T01660029  RH  040%=      5-min Rain = 0
KGO1 092228Z 10011KT 17/03 A3003 RMK A01 T01660032  RH  041%=      5-min Rain = 0
KGO1 092229Z 10011KT 17/03 A3003 RMK A01 T01670033  RH  041%=      5-min Rain = 0
KGO1 092230Z 09011KT 17/03 A3003 RMK A01 T01670030  RH  040%=      5-min Rain = 0
KGO1 092231Z 09009KT 17/03 A3003 RMK A01 T01670031  RH  040%=      5-min Rain = 0
KGO1 092232Z 09011KT 17/03 A3003 RMK A01 T01670032  RH  040%=      5-min Rain = 0
KGO1 092233Z 09008KT 17/03 A3003 RMK A01 T01680034  RH  041%=      5-min Rain = 0
KGO1 092234Z 10012KT 17/03 A3003 RMK A01 T01680033  RH  040%=      5-min Rain = 0
KGO1 092235Z 10010KT 17/03 A3003 RMK A01 T01680034  RH  041%=      5-min Rain = 0
KGO1 092236Z 09011KT 17/03 A3003 RMK A01 T01670033  RH  041%=      5-min Rain = 0
KGO1 092237Z 10012KT 17/03 A3003 RMK A01 T01670033  RH  041%=      5-min Rain = 0
KGO1 092238Z 10011KT 17/03 A3003 RMK A01 T01660030  RH  040%=      5-min Rain = 0
KGO1 092239Z 09011KT 17/03 A3003 RMK A01 T01650032  RH  041%=      5-min Rain = 0
KGO1 092240Z 09011KT 17/03 A3003 RMK A01 T01650030  RH  040%=      5-min Rain = 0
KGO1 092241Z 09008KT 17/03 A3003 RMK A01 T01650033  RH  041%=      5-min Rain = 0
KGO1 092242Z 09011KT 17/03 A3003 RMK A01 T01650034  RH  042%=      5-min Rain = 0
KGO1 092243Z 08009KT 17/03 A3003 RMK A01 T01650032  RH  041%=      5-min Rain = 0
KGO1 092244Z 09008KT 16/03 A3003 RMK A01 T01640030  RH  041%=      5-min Rain = 0
KGO1 092245Z 08011KT 16/03 A3003 RMK A01 T01640031  RH  041%=      5-min Rain = 0
KGO1 092246Z 08010KT 16/03 A3003 RMK A01 T01630028  RH  040%=      5-min Rain = 0
KGO1 092247Z 09008KT 16/03 A3003 RMK A01 T01630029  RH  041%=      5-min Rain = 0
KGO1 092248Z 09009KT 16/03 A3003 RMK A01 T01620032  RH  042%=      5-min Rain = 0
KGO1 092249Z 10011KT 16/03 A3003 RMK A01 T01630031  RH  041%=      5-min Rain = 0
KGO1 092250Z 10009KT 16/03 A3003 RMK A01 T01630029  RH  041%=      5-min Rain = 0
KGO1 092251Z 08007KT 16/03 A3003 RMK A01 T01630034  RH  042%=      5-min Rain = 0
KGO1 092252Z 09010KT 16/03 A3003 RMK A01 T01640030  RH  041%=      5-min Rain = 0
KGO1 092253Z 09010KT 16/03 A3003 RMK A01 T01640031  RH  041%=      5-min Rain = 0
KGO1 092254Z 10010KT 16/03 A3003 RMK A01 T01640032  RH  041%=      5-min Rain = 0
KGO1 092255Z 10011KT 16/03 A3003 RMK A01 T01640031  RH  041%=      5-min Rain = 0
KGO1 092256Z 10010KT 16/03 A3003 RMK A01 T01640032  RH  041%=      5-min Rain = 0
KGO1 092257Z 09009KT 16/03 A3003 RMK A01 T01640034  RH  042%=      5-min Rain = 0
KGO1 092258Z 09009KT 16/03 A3003 RMK A01 T01640031  RH  041%=      5-min Rain = 0
KGO1 092259Z 09008KT 16/03 A3003 RMK A01 T01640033  RH  042%=      5-min Rain = 0
KGO1 092300Z 10007KT 16/04 A3003 RMK A01 T01640038  RH  043%=      5-min Rain = 0
KGO1 092301Z 09009KT 16/03 A3003 RMK A01 T01640034  RH  042%=      5-min Rain = 0
KGO1 092302Z 09008KT 16/03 A3003 RMK A01 T01640034  RH  042%=      5-min Rain = 0
KGO1 092303Z 09009KT 16/03 A3003 RMK A01 T01640031  RH  041%=      5-min Rain = 0
KGO1 092304Z 09008KT 16/03 A3004 RMK A01 T01630033  RH  042%=      5-min Rain = 0
KGO1 092305Z 10009KT 16/04 A3004 RMK A01 T01630035  RH  042%=      5-min Rain = 0
KGO1 092306Z 10011KT 16/04 A3004 RMK A01 T01630035  RH  042%=      5-min Rain = 0
KGO1 092307Z 10011KT 16/03 A3004 RMK A01 T01630030  RH  041%=      5-min Rain = 0
KGO1 092308Z 09009KT 16/03 A3004 RMK A01 T01620031  RH  042%=      5-min Rain = 0
KGO1 092309Z 08010KT 16/03 A3004 RMK A01 T01620033  RH  042%=      5-min Rain = 0
KGO1 092310Z 09010KT 16/03 A3004 RMK A01 T01620030  RH  041%=      5-min Rain = 0
KGO1 092311Z 08009KT 16/03 A3004 RMK A01 T01620031  RH  042%=      5-min Rain = 0
KGO1 092312Z 09007KT 16/04 A3004 RMK A01 T01620036  RH  043%=      5-min Rain = 0
KGO1 092313Z 09008KT 16/03 A3004 RMK A01 T01620034  RH  042%=      5-min Rain = 0
KGO1 092314Z 10009KT 16/04 A3004 RMK A01 T01620037  RH  043%=      5-min Rain = 0
KGO1 092315Z 10009KT 16/03 A3004 RMK A01 T01620033  RH  042%=      5-min Rain = 0
KGO1 092316Z 10009KT 16/03 A3004 RMK A01 T01610034  RH  043%=      5-min Rain = 0
KGO1 092317Z 09011KT 16/04 A3004 RMK A01 T01610035  RH  043%=      5-min Rain = 0
KGO1 092318Z 09010KT 16/03 A3004 RMK A01 T01610033  RH  042%=      5-min Rain = 0
KGO1 092319Z 09012KT 16/03 A3004 RMK A01 T01600031  RH  042%=      5-min Rain = 0
KGO1 092320Z 09010KT 16/03 A3004 RMK A01 T01600030  RH  042%=      5-min Rain = 0
KGO1 092321Z 09010KT 16/03 A3004 RMK A01 T01590031  RH  042%=      5-min Rain = 0
KGO1 092322Z 09010KT 16/03 A3004 RMK A01 T01590031  RH  042%=      5-min Rain = 0
KGO1 092323Z 09009KT 16/03 A3004 RMK A01 T01590031  RH  042%=      5-min Rain = 0
KGO1 092324Z 09010KT 16/03 A3004 RMK A01 T01590029  RH  042%=      5-min Rain = 0
KGO1 092325Z 10009KT 16/03 A3004 RMK A01 T01590032  RH  042%=      5-min Rain = 0
KGO1 092326Z 10011KT 16/03 A3004 RMK A01 T01590030  RH  042%=      5-min Rain = 0
KGO1 092327Z 10011KT 16/03 A3004 RMK A01 T01590029  RH  042%=      5-min Rain = 0
KGO1 092328Z 10010KT 16/03 A3004 RMK A01 T01590029  RH  042%=      5-min Rain = 0
KGO1 092329Z 09009KT 16/03 A3004 RMK A01 T01590031  RH  042%=      5-min Rain = 0
KGO1 092330Z 09008KT 16/03 A3004 RMK A01 T01590033  RH  043%=      5-min Rain = 0
KGO1 092331Z 09010KT 16/03 A3004 RMK A01 T01590031  RH  042%=      5-min Rain = 0
KGO1 092332Z 09008KT 16/03 A3004 RMK A01 T01590031  RH  042%=      5-min Rain = 0
KGO1 092333Z 10009KT 16/03 A3004 RMK A01 T01580032  RH  043%=      5-min Rain = 0
KGO1 092334Z 10010KT 16/03 A3004 RMK A01 T01590032  RH  043%=      5-min Rain = 0
KGO1 092335Z 10010KT 16/03 A3004 RMK A01 T01590031  RH  042%=      5-min Rain = 0
KGO1 092336Z 10008KT 16/03 A3004 RMK A01 T01590030  RH  042%=      5-min Rain = 0
KGO1 092337Z 09007KT 16/03 A3004 RMK A01 T01600034  RH  043%=      5-min Rain = 0
KGO1 092338Z 09007KT 16/04 A3004 RMK A01 T01600035  RH  043%=      5-min Rain = 0
KGO1 092339Z 10008KT 16/04 A3004 RMK A01 T01600035  RH  043%=      5-min Rain = 0
KGO1 092340Z 10008KT 16/04 A3004 RMK A01 T01600037  RH  044%=      5-min Rain = 0
KGO1 092341Z 10011KT 16/04 A3004 RMK A01 T01600036  RH  043%=      5-min Rain = 0
KGO1 092342Z 11011KT 16/03 A3004 RMK A01 T01600032  RH  042%=      5-min Rain = 0
KGO1 092343Z 10012KT 16/03 A3004 RMK A01 T01590033  RH  043%=      5-min Rain = 0
KGO1 092344Z 10011KT 16/03 A3004 RMK A01 T01590031  RH  042%=      5-min Rain = 0
KGO1 092345Z 09009KT 16/03 A3004 RMK A01 T01590032  RH  043%=      5-min Rain = 0
KGO1 092346Z 09011KT 16/03 A3004 RMK A01 T01580032  RH  043%=      5-min Rain = 0
KGO1 092347Z 09010KT 16/03 A3004 RMK A01 T01580031  RH  042%=      5-min Rain = 0
KGO1 092348Z 10011KT 16/03 A3004 RMK A01 T01580031  RH  043%=      5-min Rain = 0
KGO1 092349Z 10011KT 16/03 A3004 RMK A01 T01580031  RH  042%=      5-min Rain = 0
KGO1 092350Z 10010KT 16/03 A3004 RMK A01 T01580031  RH  042%=      5-min Rain = 0
KGO1 092351Z 10011KT 16/03 A3004 RMK A01 T01580031  RH  042%=      5-min Rain = 0
KGO1 092352Z 10011KT 16/03 A3004 RMK A01 T01590031  RH  042%=      5-min Rain = 0
KGO1 092353Z 10010KT 16/03 A3004 RMK A01 T01590032  RH  043%=      5-min Rain = 0
KGO1 092354Z 09010KT 16/03 A3004 RMK A01 T01590032  RH  043%=      5-min Rain = 0
KGO1 092355Z 10010KT 16/03 A3004 RMK A01 T01590033  RH  043%=      5-min Rain = 0
KGO1 092356Z 10010KT 16/03 A3004 RMK A01 T01590033  RH  043%=      5-min Rain = 0
KGO1 092357Z 10011KT 16/03 A3004 RMK A01 T01590032  RH  042%=      5-min Rain = 0
KGO1 092358Z 09010KT 16/03 A3004 RMK A01 T01590032  RH  043%=      5-min Rain = 0
KGO1 092359Z 08010KT 16/03 A3004 RMK A01 T01590032  RH  043%=      5-min Rain = 0
KGO1 100000Z 09010KT 16/03 A3004 RMK A01 T01590032  RH  043%=      5-min Rain = 0
KGO1 100001Z 09010KT 16/03 A3004 RMK A01 T01590032  RH  043%=      5-min Rain = 0
KGO1 100002Z 10008KT 16/03 A3004 RMK A01 T01590034  RH  043%=      5-min Rain = 0
KGO1 100003Z 10012KT 16/04 A3004 RMK A01 T01590035  RH  043%=      5-min Rain = 0
KGO1 100004Z 09009KT 16/03 A3004 RMK A01 T01580031  RH  043%=      5-min Rain = 0
KGO1 100005Z 10009KT 16/03 A3004 RMK A01 T01590033  RH  043%=      5-min Rain = 0
KGO1 100006Z 10010KT 16/04 A3004 RMK A01 T01590035  RH  043%=      5-min Rain = 0
KGO1 100007Z 10011KT 16/03 A3004 RMK A01 T01590034  RH  043%=      5-min Rain = 0
KGO1 100008Z 10012KT 16/03 A3004 RMK A01 T01580033  RH  043%=      5-min Rain = 0
KGO1 100009Z 09010KT 16/03 A3004 RMK A01 T01580033  RH  043%=      5-min Rain = 0
KGO1 100010Z 10013KT 16/03 A3004 RMK A01 T01580034  RH  044%=      5-min Rain = 0
KGO1 100011Z 10011KT 16/03 A3004 RMK A01 T01580033  RH  043%=      5-min Rain = 0
KGO1 100012Z 09010KT 16/03 A3004 RMK A01 T01580034  RH  044%=      5-min Rain = 0
KGO1 100013Z 09010KT 16/03 A3004 RMK A01 T01570034  RH  044%=      5-min Rain = 0
KGO1 100014Z 08011KT 16/03 A3004 RMK A01 T01570032  RH  043%=      5-min Rain = 0
KGO1 100015Z 09009KT 16/03 A3004 RMK A01 T01570033  RH  043%=      5-min Rain = 0
KGO1 100016Z 08010KT 16/03 A3005 RMK A01 T01560033  RH  044%=      5-min Rain = 0
KGO1 100017Z 09009KT 16/03 A3005 RMK A01 T01550033  RH  044%=      5-min Rain = 0
KGO1 100018Z 08011KT 16/03 A3005 RMK A01 T01550033  RH  044%=      5-min Rain = 0
KGO1 100019Z 09011KT 16/03 A3004 RMK A01 T01550031  RH  044%=      5-min Rain = 0
KGO1 100020Z 09013KT 16/03 A3004 RMK A01 T01550032  RH  044%=      5-min Rain = 0
KGO1 100021Z 08011KT 16/03 A3004 RMK A01 T01550031  RH  043%=      5-min Rain = 0
KGO1 100022Z 08009KT 15/03 A3004 RMK A01 T01540032  RH  044%=      5-min Rain = 0
KGO1 100023Z 08011KT 15/03 A3004 RMK A01 T01540032  RH  044%=      5-min Rain = 0
KGO1 100024Z 08013KT 15/03 A3004 RMK A01 T01540032  RH  044%=      5-min Rain = 0
KGO1 100025Z 08012KT 15/03 A3004 RMK A01 T01530031  RH  044%=      5-min Rain = 0
KGO1 100026Z 08010KT 15/03 A3004 RMK A01 T01530032  RH  044%=      5-min Rain = 0
KGO1 100027Z 09008KT 15/04 A3004 RMK A01 T01530035  RH  045%=      5-min Rain = 0
KGO1 100028Z 09010KT 15/04 A3004 RMK A01 T01540035  RH  045%=      5-min Rain = 0
KGO1 100029Z 09010KT 15/04 A3004 RMK A01 T01540035  RH  045%=      5-min Rain = 0
KGO1 100030Z 09012KT 16/03 A3004 RMK A01 T01550033  RH  044%=      5-min Rain = 0
KGO1 100031Z 09011KT 16/03 A3004 RMK A01 T01550032  RH  044%=      5-min Rain = 0
KGO1 100032Z 09011KT 16/03 A3004 RMK A01 T01550032  RH  043%=      5-min Rain = 0
KGO1 100033Z 08011KT 16/03 A3004 RMK A01 T01550032  RH  044%=      5-min Rain = 0
KGO1 100034Z 09009KT 16/03 A3004 RMK A01 T01550031  RH  044%=      5-min Rain = 0
KGO1 100035Z 08010KT 15/03 A3004 RMK A01 T01540032  RH  044%=      5-min Rain = 0
KGO1 100036Z 08011KT 15/03 A3005 RMK A01 T01540032  RH  044%=      5-min Rain = 0
KGO1 100037Z 08009KT 15/03 A3004 RMK A01 T01530032  RH  044%=      5-min Rain = 0
KGO1 100038Z 09010KT 15/03 A3004 RMK A01 T01520033  RH  045%=      5-min Rain = 0
KGO1 100039Z 09012KT 15/03 A3004 RMK A01 T01510031  RH  045%=      5-min Rain = 0
KGO1 100040Z 09012KT 15/03 A3004 RMK A01 T01510031  RH  045%=      5-min Rain = 0
KGO1 100041Z 08012KT 15/03 A3004 RMK A01 T01500031  RH  045%=      5-min Rain = 0
KGO1 100042Z 08013KT 15/03 A3004 RMK A01 T01500030  RH  044%=      5-min Rain = 0
KGO1 100043Z 09012KT 15/03 A3004 RMK A01 T01490029  RH  044%=      5-min Rain = 0
KGO1 100044Z 08012KT 15/03 A3004 RMK A01 T01480030  RH  045%=      5-min Rain = 0
KGO1 100045Z 08011KT 15/03 A3004 RMK A01 T01480030  RH  045%=      5-min Rain = 0
KGO1 100046Z 08008KT 15/03 A3004 RMK A01 T01470030  RH  045%=      5-min Rain = 0
KGO1 100047Z 08009KT 15/03 A3005 RMK A01 T01470031  RH  046%=      5-min Rain = 0
KGO1 100048Z 08007KT 15/03 A3005 RMK A01 T01460031  RH  046%=      5-min Rain = 0
KGO1 100049Z 08006KT 15/03 A3005 RMK A01 T01450031  RH  046%=      5-min Rain = 0
KGO1 100050Z 08009KT 14/03 A3005 RMK A01 T01440030  RH  046%=      5-min Rain = 0
KGO1 100051Z 08007KT 14/03 A3005 RMK A01 T01440031  RH  047%=      5-min Rain = 0
KGO1 100052Z 07007KT 14/03 A3005 RMK A01 T01430030  RH  047%=      5-min Rain = 0
KGO1 100053Z 08010KT 14/03 A3005 RMK A01 T01430030  RH  047%=      5-min Rain = 0
KGO1 100054Z 08010KT 14/03 A3005 RMK A01 T01430031  RH  047%=      5-min Rain = 0
KGO1 100055Z 08009KT 14/03 A3005 RMK A01 T01420030  RH  047%=      5-min Rain = 0
KGO1 100056Z 08010KT 14/03 A3005 RMK A01 T01410030  RH  047%=      5-min Rain = 0
KGO1 100057Z 08008G13KT 14/03 A3005 RMK A01 T01410030  RH  047%=      5-min Rain = 0
KGO1 100058Z 09008KT 14/03 A3005 RMK A01 T01400030  RH  047%=      5-min Rain = 0
KGO1 100059Z 09009KT 14/03 A3005 RMK A01 T01390031  RH  048%=      5-min Rain = 0
KGO1 100100Z 08009KT 14/03 A3005 RMK A01 T01380030  RH  048%=      5-min Rain = 0
KGO1 100101Z 09008KT 14/03 A3005 RMK A01 T01380030  RH  048%=      5-min Rain = 0
KGO1 100102Z 09009KT 14/03 A3006 RMK A01 T01380030  RH  048%=      5-min Rain = 0
KGO1 100103Z 08008KT 14/03 A3006 RMK A01 T01370031  RH  049%=      5-min Rain = 0
KGO1 100104Z 08008KT 14/03 A3006 RMK A01 T01360031  RH  049%=      5-min Rain = 0
KGO1 100105Z 08007KT 14/03 A3006 RMK A01 T01350031  RH  049%=      5-min Rain = 0
KGO1 100106Z 08007KT 14/03 A3006 RMK A01 T01350031  RH  049%=      5-min Rain = 0
KGO1 100107Z 08007KT 13/03 A3006 RMK A01 T01340030  RH  049%=      5-min Rain = 0
KGO1 100108Z 08008KT 13/03 A3006 RMK A01 T01340031  RH  050%=      5-min Rain = 0
KGO1 100109Z 08008KT 13/03 A3006 RMK A01 T01340031  RH  050%=      5-min Rain = 0
KGO1 100110Z 08007KT 13/03 A3006 RMK A01 T01330031  RH  050%=      5-min Rain = 0
KGO1 100111Z 08008KT 13/03 A3006 RMK A01 T01330031  RH  050%=      5-min Rain = 0
KGO1 100112Z 08008KT 13/03 A3006 RMK A01 T01320031  RH  050%=      5-min Rain = 0
KGO1 100113Z 08007KT 13/03 A3006 RMK A01 T01310030  RH  050%=      5-min Rain = 0
KGO1 100114Z 09008KT 13/03 A3006 RMK A01 T01310030  RH  050%=      5-min Rain = 0
KGO1 100115Z 08007KT 13/03 A3006 RMK A01 T01300030  RH  051%=      5-min Rain = 0
KGO1 100116Z 08007KT 13/03 A3006 RMK A01 T01300030  RH  051%=      5-min Rain = 0
KGO1 100117Z 08007KT 13/03 A3006 RMK A01 T01300030  RH  051%=      5-min Rain = 0
KGO1 100118Z 08008KT 13/03 A3006 RMK A01 T01280029  RH  051%=      5-min Rain = 0
KGO1 100119Z 08007KT 13/03 A3006 RMK A01 T01280030  RH  051%=      5-min Rain = 0
KGO1 100120Z 08006KT 13/03 A3006 RMK A01 T01270030  RH  051%=      5-min Rain = 0
KGO1 100121Z 08006KT 13/03 A3006 RMK A01 T01270030  RH  051%=      5-min Rain = 0
KGO1 100122Z 08007KT 13/03 A3006 RMK A01 T01270030  RH  052%=      5-min Rain = 0
KGO1 100123Z 08007KT 13/03 A3006 RMK A01 T01260029  RH  052%=      5-min Rain = 0
KGO1 100124Z 07006KT 13/03 A3006 RMK A01 T01270030  RH  052%=      5-min Rain = 0
KGO1 100125Z 07005KT 13/03 A3006 RMK A01 T01260030  RH  052%=      5-min Rain = 0
KGO1 100126Z 07006KT 13/03 A3006 RMK A01 T01250030  RH  052%=      5-min Rain = 0
KGO1 100127Z 07006KT 12/03 A3006 RMK A01 T01240030  RH  053%=      5-min Rain = 0
KGO1 100128Z 07006KT 12/03 A3006 RMK A01 T01230030  RH  053%=      5-min Rain = 0
KGO1 100129Z 07006KT 12/03 A3006 RMK A01 T01220030  RH  053%=      5-min Rain = 0
KGO1 100130Z 07006KT 12/03 A3006 RMK A01 T01220031  RH  054%=      5-min Rain = 0
KGO1 100131Z 07006KT 12/03 A3006 RMK A01 T01210031  RH  054%=      5-min Rain = 0
KGO1 100132Z 07006KT 12/03 A3006 RMK A01 T01190031  RH  055%=      5-min Rain = 0
KGO1 100133Z 07007KT 12/03 A3007 RMK A01 T01190031  RH  055%=      5-min Rain = 0
KGO1 100134Z 08006KT 12/03 A3007 RMK A01 T01180031  RH  055%=      5-min Rain = 0
KGO1 100135Z 08007KT 12/03 A3007 RMK A01 T01180031  RH  055%=      5-min Rain = 0
KGO1 100136Z 08006KT 12/03 A3007 RMK A01 T01180031  RH  055%=      5-min Rain = 0
KGO1 100137Z 08006KT 12/03 A3007 RMK A01 T01180031  RH  055%=      5-min Rain = 0
KGO1 100138Z 08006KT 12/03 A3007 RMK A01 T01160031  RH  056%=      5-min Rain = 0
KGO1 100139Z 08006KT 12/03 A3007 RMK A01 T01150031  RH  056%=      5-min Rain = 0
KGO1 100140Z 08006KT 12/03 A3007 RMK A01 T01150031  RH  056%=      5-min Rain = 0
KGO1 100141Z 08006KT 11/03 A3007 RMK A01 T01140031  RH  056%=      5-min Rain = 0
KGO1 100142Z 08006KT 11/03 A3007 RMK A01 T01130031  RH  057%=      5-min Rain = 0
KGO1 100143Z 08006KT 11/03 A3007 RMK A01 T01120031  RH  057%=      5-min Rain = 0
KGO1 100144Z 08006KT 11/03 A3007 RMK A01 T01120030  RH  057%=      5-min Rain = 0
KGO1 100145Z 08006KT 11/03 A3007 RMK A01 T01120031  RH  057%=      5-min Rain = 0
KGO1 100146Z 08006KT 11/03 A3007 RMK A01 T01110030  RH  057%=      5-min Rain = 0
KGO1 100147Z 08007KT 11/03 A3007 RMK A01 T01120030  RH  057%=      5-min Rain = 0
KGO1 100148Z 08006KT 11/03 A3007 RMK A01 T01110030  RH  057%=      5-min Rain = 0
KGO1 100149Z 08006KT 11/03 A3007 RMK A01 T01110030  RH  057%=      5-min Rain = 0
KGO1 100150Z 08007KT 11/03 A3007 RMK A01 T01110030  RH  057%=      5-min Rain = 0
KGO1 100151Z 08007KT 11/03 A3007 RMK A01 T01110030  RH  057%=      5-min Rain = 0
KGO1 100152Z 08007KT 11/03 A3007 RMK A01 T01110030  RH  058%=      5-min Rain = 0
KGO1 100153Z 08008KT 11/03 A3007 RMK A01 T01110030  RH  058%=      5-min Rain = 0
KGO1 100154Z 08008KT 11/03 A3007 RMK A01 T01110030  RH  058%=      5-min Rain = 0
KGO1 100155Z 09007KT 11/03 A3007 RMK A01 T01110030  RH  057%=      5-min Rain = 0
KGO1 100156Z 08008KT 11/03 A3007 RMK A01 T01120030  RH  057%=      5-min Rain = 0
KGO1 100157Z 08008KT 11/03 A3007 RMK A01 T01120030  RH  057%=      5-min Rain = 0
KGO1 100158Z 08009KT 11/03 A3007 RMK A01 T01130030  RH  057%=      5-min Rain = 0
KGO1 100159Z 08008KT 11/03 A3007 RMK A01 T01130030  RH  057%=      5-min Rain = 0
KGO1 100200Z 08008KT 11/03 A3007 RMK A01 T01130030  RH  057%=      5-min Rain = 0
KGO1 100201Z 09009KT 11/03 A3007 RMK A01 T01130030  RH  057%=      5-min Rain = 0
KGO1 100202Z 09008KT 11/03 A3007 RMK A01 T01130031  RH  057%=      5-min Rain = 0
KGO1 100203Z 09009KT 11/03 A3007 RMK A01 T01130031  RH  057%=      5-min Rain = 0
KGO1 100204Z 09008KT 11/03 A3007 RMK A01 T01120031  RH  057%=      5-min Rain = 0
KGO1 100205Z 09008KT 11/03 A3007 RMK A01 T01110031  RH  058%=      5-min Rain = 0
KGO1 100206Z 09008KT 11/03 A3007 RMK A01 T01100031  RH  058%=      5-min Rain = 0
KGO1 100207Z 09009KT 11/03 A3007 RMK A01 T01100031  RH  058%=      5-min Rain = 0
KGO1 100208Z 09008KT 11/03 A3008 RMK A01 T01100031  RH  058%=      5-min Rain = 0
KGO1 100209Z 08008KT 11/03 A3008 RMK A01 T01100032  RH  058%=      5-min Rain = 0
KGO1 100210Z 08008KT 11/03 A3008 RMK A01 T01100032  RH  058%=      5-min Rain = 0
KGO1 100211Z 09009KT 11/03 A3008 RMK A01 T01110032  RH  058%=      5-min Rain = 0
KGO1 100212Z 09009KT 11/03 A3008 RMK A01 T01110032  RH  058%=      5-min Rain = 0
KGO1 100213Z 09008KT 11/03 A3008 RMK A01 T01100032  RH  059%=      5-min Rain = 0
KGO1 100214Z 09009KT 11/03 A3008 RMK A01 T01090032  RH  059%=      5-min Rain = 0
KGO1 100215Z 09008KT 11/03 A3008 RMK A01 T01100032  RH  059%=      5-min Rain = 0
KGO1 100216Z 09009KT 11/03 A3008 RMK A01 T01100032  RH  059%=      5-min Rain = 0
KGO1 100217Z 08009KT 11/03 A3008 RMK A01 T01100032  RH  059%=      5-min Rain = 0
KGO1 100218Z 09008KT 11/03 A3008 RMK A01 T01090032  RH  059%=      5-min Rain = 0
KGO1 100219Z 08008KT 11/03 A3008 RMK A01 T01090032  RH  059%=      5-min Rain = 0
KGO1 100220Z 08008KT 11/03 A3008 RMK A01 T01080032  RH  059%=      5-min Rain = 0
KGO1 100221Z 08008KT 11/03 A3008 RMK A01 T01080031  RH  059%=      5-min Rain = 0
KGO1 100222Z 08008KT 11/03 A3008 RMK A01 T01080032  RH  059%=      5-min Rain = 0
KGO1 100223Z 08009KT 11/03 A3008 RMK A01 T01080032  RH  059%=      5-min Rain = 0
KGO1 100224Z 09009KT 11/03 A3008 RMK A01 T01070032  RH  060%=      5-min Rain = 0
KGO1 100225Z 09009KT 11/03 A3008 RMK A01 T01070032  RH  060%=      5-min Rain = 0
KGO1 100226Z 09009KT 11/03 A3008 RMK A01 T01070032  RH  060%=      5-min Rain = 0
KGO1 100227Z 09009KT 11/03 A3009 RMK A01 T01070032  RH  060%=      5-min Rain = 0
KGO1 100228Z 08009KT 11/03 A3009 RMK A01 T01070032  RH  060%=      5-min Rain = 0
KGO1 100229Z 08009KT 11/03 A3009 RMK A01 T01060032  RH  060%=      5-min Rain = 0
KGO1 100230Z 09008KT 11/03 A3009 RMK A01 T01070032  RH  060%=      5-min Rain = 0
KGO1 100231Z 09010KT 11/03 A3009 RMK A01 T01060031  RH  060%=      5-min Rain = 0
KGO1 100232Z 08009KT 11/03 A3009 RMK A01 T01070032  RH  059%=      5-min Rain = 0
KGO1 100233Z 08008KT 11/03 A3009 RMK A01 T01070032  RH  059%=      5-min Rain = 0
KGO1 100234Z 08008KT 11/03 A3009 RMK A01 T01070032  RH  060%=      5-min Rain = 0
KGO1 100235Z 08008KT 11/03 A3009 RMK A01 T01060031  RH  060%=      5-min Rain = 0
KGO1 100236Z 08009KT 11/03 A3009 RMK A01 T01050031  RH  060%=      5-min Rain = 0
KGO1 100237Z 08008KT 10/03 A3009 RMK A01 T01040031  RH  061%=      5-min Rain = 0
KGO1 100238Z 09008KT 10/03 A3009 RMK A01 T01040031  RH  061%=      5-min Rain = 0
KGO1 100239Z 08008KT 10/03 A3009 RMK A01 T01040031  RH  061%=      5-min Rain = 0
KGO1 100240Z 08009KT 10/03 A3009 RMK A01 T01040031  RH  060%=      5-min Rain = 0
KGO1 100241Z 08009KT 10/03 A3009 RMK A01 T01040031  RH  060%=      5-min Rain = 0
KGO1 100242Z 09009KT 10/03 A3009 RMK A01 T01040031  RH  060%=      5-min Rain = 0
KGO1 100243Z 09009KT 10/03 A3009 RMK A01 T01040030  RH  060%=      5-min Rain = 0
KGO1 100244Z 08009KT 10/03 A3009 RMK A01 T01040030  RH  060%=      5-min Rain = 0
KGO1 100245Z 09009KT 10/03 A3009 RMK A01 T01040030  RH  060%=      5-min Rain = 0
KGO1 100246Z 09009KT 11/03 A3009 RMK A01 T01050030  RH  060%=      5-min Rain = 0
KGO1 100247Z 08008KT 10/03 A3009 RMK A01 T01040030  RH  060%=      5-min Rain = 0
KGO1 100248Z 08008KT 10/03 A3009 RMK A01 T01040030  RH  060%=      5-min Rain = 0
KGO1 100249Z 08008KT 10/03 A3009 RMK A01 T01040030  RH  060%=      5-min Rain = 0
KGO1 100250Z 08008KT 10/03 A301 RMK A01 T01030029  RH  060%=      5-min Rain = 0
KGO1 100251Z 08008KT 10/03 A301 RMK A01 T01030029  RH  060%=      5-min Rain = 0
KGO1 100252Z 08007KT 10/03 A301 RMK A01 T01020029  RH  060%=      5-min Rain = 0
KGO1 100253Z 08008KT 10/03 A301 RMK A01 T01020029  RH  060%=      5-min Rain = 0
KGO1 100254Z 09008KT 10/03 A301 RMK A01 T01020028  RH  060%=      5-min Rain = 0
KGO1 100255Z 09009KT 10/03 A301 RMK A01 T01020028  RH  060%=      5-min Rain = 0
KGO1 100256Z 09008KT 10/03 A301 RMK A01 T01020028  RH  060%=      5-min Rain = 0
KGO1 100257Z 09009KT 10/03 A301 RMK A01 T01020028  RH  060%=      5-min Rain = 0
KGO1 100258Z 08008KT 10/03 A301 RMK A01 T01020028  RH  060%=      5-min Rain = 0
KGO1 100259Z 08008KT 10/03 A301 RMK A01 T01020028  RH  060%=      5-min Rain = 0
KGO1 100300Z 09008KT 10/03 A301 RMK A01 T01020028  RH  060%=      5-min Rain = 0
KGO1 100301Z 09008KT 10/03 A301 RMK A01 T01010028  RH  060%=      5-min Rain = 0
KGO1 100302Z 09008KT 10/03 A301 RMK A01 T01000028  RH  061%=      5-min Rain = 0
KGO1 100303Z 09008KT 10/03 A301 RMK A01 T01000027  RH  061%=      5-min Rain = 0
KGO1 100304Z 09008KT 10/03 A301 RMK A01 T00990027  RH  061%=      5-min Rain = 0
KGO1 100305Z 09008KT 10/03 A301 RMK A01 T00980027  RH  061%=      5-min Rain = 0
KGO1 100306Z 09008KT 10/03 A301 RMK A01 T00980027  RH  061%=      5-min Rain = 0
KGO1 100307Z 09008KT 10/03 A301 RMK A01 T00970027  RH  061%=      5-min Rain = 0
KGO1 100308Z 09008KT 10/03 A301 RMK A01 T00970027  RH  062%=      5-min Rain = 0
KGO1 100309Z 09007KT 10/03 A301 RMK A01 T00960027  RH  062%=      5-min Rain = 0
KGO1 100310Z 09008KT 10/03 A301 RMK A01 T00970027  RH  062%=      5-min Rain = 0
KGO1 100311Z 08008KT 10/03 A301 RMK A01 T00970027  RH  062%=      5-min Rain = 0
KGO1 100312Z 09008KT 10/03 A301 RMK A01 T00970026  RH  061%=      5-min Rain = 0
KGO1 100313Z 09007KT 10/03 A301 RMK A01 T00970026  RH  061%=      5-min Rain = 0
KGO1 100314Z 08007KT 10/03 A3011 RMK A01 T00960026  RH  062%=      5-min Rain = 0
KGO1 100315Z 08007KT 10/03 A3011 RMK A01 T00960026  RH  062%=      5-min Rain = 0
KGO1 100316Z 08007KT 10/03 A3011 RMK A01 T00950026  RH  062%=      5-min Rain = 0
KGO1 100317Z 08007KT 10/03 A3011 RMK A01 T00950026  RH  062%=      5-min Rain = 0
KGO1 100318Z 08007KT 10/03 A3011 RMK A01 T00950026  RH  062%=      5-min Rain = 0
KGO1 100319Z 09007KT 10/03 A3011 RMK A01 T00950026  RH  062%=      5-min Rain = 0
KGO1 100320Z 08006KT 10/03 A3011 RMK A01 T00950026  RH  062%=      5-min Rain = 0
KGO1 100321Z 08007KT 10/03 A3011 RMK A01 T00950026  RH  062%=      5-min Rain = 0
KGO1 100322Z 08006KT 10/03 A3011 RMK A01 T00950026  RH  062%=      5-min Rain = 0
KGO1 100323Z 08007KT 10/03 A3011 RMK A01 T00950026  RH  062%=      5-min Rain = 0
KGO1 100324Z 09007KT 09/03 A3011 RMK A01 T00940025  RH  062%=      5-min Rain = 0
KGO1 100325Z 09008KT 09/03 A3011 RMK A01 T00940025  RH  062%=      5-min Rain = 0
KGO1 100326Z 08008KT 10/03 A3011 RMK A01 T00950025  RH  062%=      5-min Rain = 0
KGO1 100327Z 08008KT 10/03 A3011 RMK A01 T00950025  RH  061%=      5-min Rain = 0
KGO1 100328Z 08008KT 10/03 A3011 RMK A01 T00960025  RH  061%=      5-min Rain = 0
KGO1 100329Z 09008KT 10/03 A3011 RMK A01 T00950025  RH  061%=      5-min Rain = 0
KGO1 100330Z 09008KT 10/03 A3011 RMK A01 T00960025  RH  061%=      5-min Rain = 0
KGO1 100331Z 09008KT 10/02 A3012 RMK A01 T00960024  RH  061%=      5-min Rain = 0
KGO1 100332Z 08008KT 10/02 A3012 RMK A01 T00960024  RH  061%=      5-min Rain = 0
KGO1 100333Z 09008KT 10/03 A3012 RMK A01 T00960025  RH  061%=      5-min Rain = 0
KGO1 100334Z 09007KT 10/02 A3012 RMK A01 T00970024  RH  061%=      5-min Rain = 0
KGO1 100335Z 08008KT 10/02 A3012 RMK A01 T00970024  RH  061%=      5-min Rain = 0
KGO1 100336Z 08008KT 10/03 A3012 RMK A01 T00960025  RH  061%=      5-min Rain = 0
KGO1 100337Z 09008KT 10/02 A3012 RMK A01 T00960024  RH  061%=      5-min Rain = 0
KGO1 100338Z 09008KT 10/02 A3012 RMK A01 T00950024  RH  061%=      5-min Rain = 0
KGO1 100339Z 08008KT 10/02 A3012 RMK A01 T00960024  RH  061%=      5-min Rain = 0
KGO1 100340Z 08007KT 10/02 A3012 RMK A01 T00960024  RH  061%=      5-min Rain = 0
KGO1 100341Z 08008KT 10/02 A3012 RMK A01 T00960024  RH  061%=      5-min Rain = 0
KGO1 100342Z 09008KT 10/02 A3012 RMK A01 T00960024  RH  061%=      5-min Rain = 0
KGO1 100343Z 08008KT 10/02 A3012 RMK A01 T00960024  RH  061%=      5-min Rain = 0
KGO1 100344Z 08008KT 10/02 A3013 RMK A01 T00960024  RH  061%=      5-min Rain = 0
KGO1 100345Z 08006KT 10/02 A3013 RMK A01 T00960024  RH  061%=      5-min Rain = 0
KGO1 100346Z 08007KT 10/02 A3013 RMK A01 T00960024  RH  061%=      5-min Rain = 0
KGO1 100347Z 08006KT 10/02 A3013 RMK A01 T00950024  RH  061%=      5-min Rain = 0
KGO1 100348Z 08006KT 10/02 A3013 RMK A01 T00950024  RH  061%=      5-min Rain = 0
KGO1 100349Z 08006KT 09/02 A3013 RMK A01 T00940024  RH  062%=      5-min Rain = 0
KGO1 100350Z 07008KT 09/02 A3013 RMK A01 T00940024  RH  062%=      5-min Rain = 0
KGO1 100351Z 07007KT 10/02 A3013 RMK A01 T00950024  RH  061%=      5-min Rain = 0
KGO1 100352Z 07007KT 10/02 A3013 RMK A01 T00950024  RH  061%=      5-min Rain = 0
KGO1 100353Z 07006KT 10/02 A3013 RMK A01 T00950024  RH  061%=      5-min Rain = 0
KGO1 100354Z 07005KT 09/02 A3013 RMK A01 T00940024  RH  061%=      5-min Rain = 0
KGO1 100355Z 07007KT 09/02 A3013 RMK A01 T00940024  RH  061%=      5-min Rain = 0
KGO1 100356Z 07006KT 09/02 A3013 RMK A01 T00940024  RH  062%=      5-min Rain = 0
KGO1 100357Z 07006KT 09/02 A3013 RMK A01 T00940024  RH  062%=      5-min Rain = 0
KGO1 100358Z 07006KT 09/02 A3013 RMK A01 T00930023  RH  062%=      5-min Rain = 0
KGO1 100359Z 07006KT 09/02 A3013 RMK A01 T00930024  RH  062%=      5-min Rain = 0
KGO1 100400Z 07007KT 09/02 A3013 RMK A01 T00920024  RH  062%=      5-min Rain = 0
KGO1 100401Z 07007KT 09/02 A3013 RMK A01 T00920024  RH  062%=      5-min Rain = 0
KGO1 100402Z 07007KT 09/02 A3013 RMK A01 T00910024  RH  063%=      5-min Rain = 0
KGO1 100403Z 06006KT 09/02 A3014 RMK A01 T00890023  RH  063%=      5-min Rain = 0
KGO1 100404Z 06007KT 09/02 A3014 RMK A01 T00880023  RH  064%=      5-min Rain = 0
KGO1 100405Z 05007KT 09/02 A3014 RMK A01 T00870024  RH  064%=      5-min Rain = 0
KGO1 100406Z 05006KT 09/02 A3014 RMK A01 T00860024  RH  065%=      5-min Rain = 0
KGO1 100407Z 05006KT 09/02 A3014 RMK A01 T00850023  RH  065%=      5-min Rain = 0
KGO1 100408Z 04006KT 08/02 A3014 RMK A01 T00840023  RH  065%=      5-min Rain = 0
KGO1 100409Z 04006KT 08/02 A3014 RMK A01 T00820022  RH  066%=      5-min Rain = 0
KGO1 100410Z 04006KT 08/02 A3014 RMK A01 T00800023  RH  067%=      5-min Rain = 0
KGO1 100411Z 04006KT 08/02 A3014 RMK A01 T00790023  RH  068%=      5-min Rain = 0
KGO1 100412Z 04005KT 08/02 A3013 RMK A01 T00780023  RH  068%=      5-min Rain = 0
KGO1 100413Z 04005KT 08/02 A3013 RMK A01 T00770022  RH  068%=      5-min Rain = 0
KGO1 100414Z 04006KT 08/02 A3013 RMK A01 T00750021  RH  069%=      5-min Rain = 0
KGO1 100415Z 04006KT 08/02 A3013 RMK A01 T00750022  RH  069%=      5-min Rain = 0
KGO1 100416Z 04006KT 08/02 A3013 RMK A01 T00750021  RH  069%=      5-min Rain = 0
KGO1 100417Z 04006KT 07/02 A3014 RMK A01 T00740021  RH  069%=      5-min Rain = 0
KGO1 100418Z 04006KT 07/02 A3014 RMK A01 T00740022  RH  069%=      5-min Rain = 0
KGO1 100419Z 04006KT 07/02 A3014 RMK A01 T00740021  RH  069%=      5-min Rain = 0
KGO1 100420Z 04006KT 07/02 A3014 RMK A01 T00730022  RH  070%=      5-min Rain = 0
KGO1 100421Z 04007KT 07/02 A3013 RMK A01 T00740022  RH  070%=      5-min Rain = 0
KGO1 100422Z 04007KT 07/02 A3013 RMK A01 T00740022  RH  070%=      5-min Rain = 0
KGO1 100423Z 05007KT 07/02 A3013 RMK A01 T00730022  RH  070%=      5-min Rain = 0
KGO1 100424Z 04007KT 07/02 A3013 RMK A01 T00730022  RH  070%=      5-min Rain = 0
KGO1 100425Z 04007KT 07/02 A3013 RMK A01 T00720022  RH  070%=      5-min Rain = 0
KGO1 100426Z 04006KT 07/02 A3014 RMK A01 T00720022  RH  071%=      5-min Rain = 0
KGO1 100427Z 04007KT 07/02 A3014 RMK A01 T00730022  RH  070%=      5-min Rain = 0
KGO1 100428Z 05008KT 07/02 A3014 RMK A01 T00730022  RH  070%=      5-min Rain = 0
KGO1 100429Z 05007KT 07/02 A3014 RMK A01 T00740023  RH  070%=      5-min Rain = 0
KGO1 100430Z 05007KT 07/02 A3014 RMK A01 T00740023  RH  070%=      5-min Rain = 0
KGO1 100431Z 05007KT 07/02 A3013 RMK A01 T00740023  RH  070%=      5-min Rain = 0
KGO1 100432Z 05007KT 07/02 A3014 RMK A01 T00740023  RH  070%=      5-min Rain = 0
KGO1 100433Z 05007KT 07/02 A3013 RMK A01 T00730023  RH  070%=      5-min Rain = 0
KGO1 100434Z 04007KT 07/02 A3014 RMK A01 T00730023  RH  071%=      5-min Rain = 0
KGO1 100435Z 05007KT 07/02 A3014 RMK A01 T00730023  RH  071%=      5-min Rain = 0
KGO1 100436Z 04006KT 07/02 A3014 RMK A01 T00720023  RH  071%=      5-min Rain = 0
KGO1 100437Z 04006KT 07/02 A3014 RMK A01 T00710023  RH  072%=      5-min Rain = 0
KGO1 100438Z 04006KT 07/02 A3014 RMK A01 T00710023  RH  072%=      5-min Rain = 0
KGO1 100439Z 04006KT 07/02 A3014 RMK A01 T00700024  RH  072%=      5-min Rain = 0
KGO1 100440Z 05006KT 07/02 A3014 RMK A01 T00700024  RH  072%=      5-min Rain = 0
KGO1 100441Z 05006KT 07/02 A3014 RMK A01 T00690023  RH  073%=      5-min Rain = 0
KGO1 100442Z 05007KT 07/02 A3014 RMK A01 T00690023  RH  073%=      5-min Rain = 0
KGO1 100443Z 05007KT 07/02 A3014 RMK A01 T00680023  RH  073%=      5-min Rain = 0
KGO1 100444Z 05007KT 07/02 A3014 RMK A01 T00680023  RH  073%=      5-min Rain = 0
KGO1 100445Z 05007KT 07/02 A3014 RMK A01 T00680023  RH  073%=      5-min Rain = 0
KGO1 100446Z 05007KT 07/02 A3014 RMK A01 T00680023  RH  073%=      5-min Rain = 0
KGO1 100447Z 05008KT 07/02 A3014 RMK A01 T00680024  RH  073%=      5-min Rain = 0
KGO1 100448Z 05007KT 07/03 A3014 RMK A01 T00690025  RH  073%=      5-min Rain = 0
KGO1 100449Z 05007KT 07/02 A3014 RMK A01 T00700024  RH  073%=      5-min Rain = 0
KGO1 100450Z 05008KT 07/02 A3014 RMK A01 T00700024  RH  073%=      5-min Rain = 0
KGO1 100451Z 05008KT 07/02 A3014 RMK A01 T00720024  RH  072%=      5-min Rain = 0
KGO1 100452Z 05008KT 07/03 A3014 RMK A01 T00740025  RH  071%=      5-min Rain = 0
KGO1 100453Z 05008KT 07/02 A3014 RMK A01 T00740024  RH  071%=      5-min Rain = 0
KGO1 100454Z 05008KT 08/02 A3014 RMK A01 T00750024  RH  070%=      5-min Rain = 0
KGO1 100455Z 05008KT 08/02 A3014 RMK A01 T00750023  RH  070%=      5-min Rain = 0
KGO1 100456Z 06008KT 08/02 A3014 RMK A01 T00760023  RH  069%=      5-min Rain = 0
KGO1 100457Z 06008KT 08/02 A3014 RMK A01 T00760023  RH  069%=      5-min Rain = 0
KGO1 100458Z 06008KT 08/02 A3014 RMK A01 T00760022  RH  069%=      5-min Rain = 0
KGO1 100459Z 06008KT 08/02 A3014 RMK A01 T00770022  RH  068%=      5-min Rain = 0

Page generated in 0.0704 seconds.